IZ1WIY-3 Weather Reports


time (UTC)temp
C
wind
direction
speed
KPH
gust
KPH
rain 1hr
cm
rain 24hr
cm
rain mn
cm
humidity
%
barometer
mb
20260505171603 18 225 8.0 17.7 0.00 1.83 1.83 79 1012.8
20260505171503 18 225 8.0 17.7 0.00 1.83 1.83 79 1012.8
20260505171403 18 224 8.0 17.7 0.00 1.83 1.83 79 1012.8
20260505171304 18 223 8.0 17.7 0.00 1.83 1.83 79 1012.7
20260505171203 18 223 6.4 17.7 0.00 1.83 1.83 78 1012.7
20260505171103 18 222 6.4 17.7 0.00 1.83 1.83 78 1012.7
20260505171004 18 222 6.4 17.7 0.00 1.83 1.83 78 1012.7
20260505170903 18 220 6.4 17.7 0.00 1.83 1.83 78 1012.7
20260505170803 18 220 6.4 17.7 0.00 1.83 1.83 78 1012.7
20260505170703 18 221 6.4 17.7 0.00 1.83 1.83 78 1012.7
20260505170603 18 221 6.4 17.7 0.00 1.83 1.83 78 1012.7
20260505170503 18 221 6.4 17.7 0.00 1.83 1.83 78 1012.7
20260505170403 18 222 6.4 17.7 0.00 1.83 1.83 78 1012.7
20260505170303 18 223 6.4 14.5 0.00 1.83 1.83 78 1012.6
20260505170203 18 225 6.4 14.5 0.00 1.83 1.83 78 1012.6
20260505170003 18 224 8.0 14.5 0.00 1.83 1.83 78 1012.6
20260505165903 18 224 8.0 16.1 0.00 1.83 1.83 78 1012.6
20260505165803 18 222 8.0 16.1 0.00 1.83 1.83 78 1012.6
20260505165703 18 220 9.7 16.1 0.00 1.83 1.83 78 1012.6
20260505165603 18 217 9.7 16.1 0.00 1.83 1.83 78 1012.6
20260505165503 18 216 9.7 16.1 0.00 1.83 1.83 78 1012.6
20260505165403 18 217 9.7 16.1 0.00 1.83 1.83 78 1012.7
20260505165306 18 216 9.7 16.1 0.00 1.83 1.83 78 1012.7
20260505165204 18 215 9.7 16.1 0.00 1.83 1.83 78 1012.6
20260505165103 18 214 8.0 16.1 0.00 1.83 1.83 78 1012.6
20260505165003 18 213 8.0 16.1 0.00 1.83 1.83 78 1012.7
20260505164903 18 213 8.0 16.1 0.00 1.83 1.83 78 1012.6
20260505164803 18 213 8.0 16.1 0.00 1.83 1.83 78 1012.6
20260505164703 18 213 8.0 16.1 0.00 1.83 1.83 78 1012.7
20260505164603 18 212 8.0 19.3 0.00 1.83 1.83 78 1012.5
20260505164503 18 213 8.0 19.3 0.00 1.83 1.83 78 1012.6
20260505164403 18 212 8.0 19.3 0.00 1.83 1.83 78 1012.6
20260505164303 18 211 8.0 19.3 0.00 1.83 1.83 78 1012.6
20260505164203 18 211 8.0 19.3 0.00 1.83 1.83 78 1012.6
20260505164103 18 210 8.0 19.3 0.00 1.83 1.83 78 1012.6
20260505164003 18 209 8.0 19.3 0.00 1.83 1.83 77 1012.6
20260505163903 18 208 6.4 19.3 0.00 1.83 1.83 77 1012.7
20260505163803 18 209 6.4 19.3 0.00 1.83 1.83 77 1012.6
20260505163703 18 210 6.4 19.3 0.00 1.83 1.83 77 1012.7
20260505163603 18 211 6.4 16.1 0.00 1.83 1.83 77 1012.7
20260505163503 18 212 4.8 16.1 0.00 1.83 1.83 77 1012.7
20260505163403 18 213 4.8 16.1 0.00 1.83 1.83 77 1012.7
20260505163303 18 215 4.8 16.1 0.00 1.83 1.83 77 1012.7
20260505163203 19 216 4.8 16.1 0.00 1.83 1.83 77 1012.7
20260505163105 19 218 4.8 16.1 0.00 1.83 1.83 77 1012.7
20260505163003 19 219 4.8 16.1 0.00 1.83 1.83 77 1012.7
20260505162903 19 221 4.8 14.5 0.00 1.83 1.83 77 1012.7
20260505162803 19 220 4.8 11.3 0.00 1.83 1.83 77 1012.7
20260505162703 19 214 6.4 11.3 0.00 1.83 1.83 76 1012.7
20260505162603 18 212 6.4 11.3 0.00 1.83 1.83 76 1012.7
20260505162503 18 210 6.4 11.3 0.00 1.83 1.83 77 1012.7
20260505162403 19 208 6.4 14.5 0.00 1.83 1.83 77 1012.7
20260505162306 18 209 6.4 14.5 0.00 1.83 1.83 77 1012.7
20260505162204 18 210 6.4 14.5 0.00 1.83 1.83 77 1012.7
20260505162103 18 211 6.4 14.5 0.00 1.83 1.83 77 1012.7
20260505162003 18 214 6.4 14.5 0.00 1.83 1.83 77 1012.7
20260505161903 19 213 6.4 14.5 0.00 1.83 1.83 77 1012.7
20260505161803 19 217 6.4 16.1 0.00 1.83 1.83 78 1012.8
20260505161703 19 218 6.4 16.1 0.00 1.83 1.83 78 1012.8
20260505161603 18 218 6.4 16.1 0.00 1.83 1.83 78 1012.8
20260505161503 18 218 6.4 16.1 0.00 1.83 1.83 77 1012.8
20260505161403 18 218 6.4 16.1 0.00 1.83 1.83 75 1012.8
20260505161303 18 216 6.4 16.1 0.00 1.83 1.83 76 1012.8
20260505161204 18 214 8.0 16.1 0.00 1.83 1.83 76 1012.8
20260505161103 18 215 8.0 16.1 0.00 1.83 1.83 76 1012.8
20260505161003 18 217 8.0 16.1 0.00 1.83 1.83 76 1012.9
20260505160903 18 219 8.0 16.1 0.00 1.83 1.83 76 1012.9
20260505160803 18 218 8.0 16.1 0.00 1.83 1.83 76 1012.9
20260505160703 18 219 8.0 16.1 0.00 1.83 1.83 76 1012.9
20260505160603 18 221 8.0 16.1 0.00 1.83 1.83 77 1012.9
20260505160503 18 221 8.0 16.1 0.00 1.83 1.83 77 1012.9
20260505160403 18 221 8.0 16.1 0.00 1.83 1.83 78 1012.9
20260505160303 18 222 8.0 16.1 0.00 1.83 1.83 77 1012.9
20260505160204 18 223 8.0 16.1 0.00 1.83 1.83 78 1012.9
20260505153303 19 215 8.0 17.7 0.00 1.83 1.83 77 1013.1
20260505153203 19 215 8.0 17.7 0.00 1.83 1.83 77 1013.1
20260505153103 19 215 8.0 17.7 0.00 1.83 1.83 77 1013.1
20260505153003 19 214 8.0 17.7 0.00 1.83 1.83 77 1013.1
20260505152903 19 215 8.0 17.7 0.00 1.83 1.83 77 1013.1
20260505152803 19 214 8.0 17.7 0.00 1.83 1.83 77 1013.2
20260505152703 19 213 8.0 17.7 0.00 1.83 1.83 77 1013.1
20260505152604 19 214 8.0 17.7 0.00 1.83 1.83 77 1013.1
20260505152504 19 215 8.0 17.7 0.00 1.83 1.83 77 1013.1
20260505152403 19 215 8.0 17.7 0.00 1.83 1.83 77 1013.1
20260505152305 19 213 8.0 17.7 0.00 1.83 1.83 77 1013.1
20260505152203 19 212 8.0 17.7 0.00 1.83 1.83 76 1013.1
20260505152103 19 211 8.0 17.7 0.00 1.83 1.83 76 1013.1
20260505152003 20 212 8.0 17.7 0.00 1.83 1.83 76 1013.1
20260505151903 20 212 8.0 17.7 0.00 1.83 1.83 76 1013.1
20260505151803 20 212 8.0 17.7 0.00 1.83 1.83 77 1013.1
20260505151703 20 213 8.0 17.7 0.00 1.83 1.83 76 1013.1
20260505151603 20 213 8.0 17.7 0.00 1.83 1.83 76 1013.0
20260505151503 20 210 8.0 17.7 0.00 1.83 1.83 75 1013.1
20260505151403 20 208 8.0 17.7 0.00 1.83 1.83 75 1013.1
20260505151303 20 208 8.0 17.7 0.00 1.83 1.83 75 1013.0
20260505151203 20 207 8.0 17.7 0.00 1.83 1.83 75 1013.0
20260505151103 20 207 8.0 17.7 0.00 1.83 1.83 74 1013.0
20260505151003 20 207 8.0 17.7 0.00 1.83 1.83 74 1013.0
20260505150903 20 207 8.0 17.7 0.00 1.83 1.83 74 1013.1
20260505150803 20 209 8.0 17.7 0.00 1.83 1.83 74 1013.0
20260505150703 20 208 8.0 17.7 0.00 1.83 1.83 74 1013.0
20260505150603 20 208 8.0 17.7 0.00 1.83 1.83 74 1013.0
20260505150503 20 210 8.0 17.7 0.00 1.83 1.83 73 1013.0
20260505150403 20 211 8.0 17.7 0.00 1.83 1.83 72 1013.0
20260505150303 20 212 8.0 17.7 0.00 1.83 1.83 72 1013.0
20260505150203 20 214 8.0 17.7 0.00 1.83 1.83 71 1013.0
20260505140603 20 230 9.7 16.1 0.00 1.83 1.83 71 1013.0
20260505140503 20 230 9.7 16.1 0.00 1.83 1.83 71 1013.0
20260505140403 20 227 8.0 16.1 0.00 1.83 1.83 71 1013.0
20260505140304 20 227 8.0 16.1 0.00 1.83 1.83 71 1013.0
20260505140203 20 227 8.0 16.1 0.00 1.83 1.83 71 1013.0
20260505130303 20 225 11.3 20.9 0.00 1.83 1.83 76 1013.3
20260505130203 20 224 11.3 20.9 0.00 1.83 1.83 76 1013.3
20260505130103 20 225 11.3 20.9 0.00 1.83 1.83 76 1013.3
20260505125003 20 219 9.7 20.9 0.00 1.83 1.83 74 1013.4
20260505124903 20 217 9.7 20.9 0.00 1.83 1.83 74 1013.4
20260505124803 20 219 11.3 20.9 0.00 1.83 1.83 74 1013.4
20260505124703 20 219 11.3 20.9 0.00 1.83 1.83 74 1013.3
20260505124603 20 219 11.3 20.9 0.00 1.83 1.83 74 1013.3
20260505124503 20 220 11.3 20.9 0.00 1.83 1.83 74 1013.3
20260505124403 20 219 11.3 20.9 0.00 1.83 1.83 74 1013.3
20260505124303 20 219 11.3 20.9 0.00 1.83 1.83 74 1013.3
20260505124203 20 218 11.3 24.1 0.00 1.83 1.83 75 1013.3
20260505124103 20 218 11.3 24.1 0.00 1.83 1.83 75 1013.3
20260505124003 19 217 9.7 24.1 0.00 1.83 1.83 75 1013.4
20260505123903 19 217 9.7 24.1 0.00 1.83 1.83 75 1013.3
20260505123803 19 217 9.7 24.1 0.00 1.83 1.83 75 1013.3
20260505123703 19 215 8.0 24.1 0.00 1.83 1.83 75 1013.3
20260505123603 19 215 8.0 24.1 0.00 1.83 1.83 76 1013.3
20260505123503 19 214 8.0 24.1 0.00 1.83 1.83 76 1013.3
20260505123403 19 215 8.0 24.1 0.00 1.83 1.83 76 1013.3
20260505123303 19 216 8.0 24.1 0.00 1.83 1.83 75 1013.3
20260505123203 19 217 8.0 24.1 0.00 1.83 1.83 74 1013.4
20260505123103 19 218 8.0 22.5 0.00 1.83 1.83 75 1013.3
20260505123003 19 219 8.0 22.5 0.00 1.83 1.83 75 1013.3
20260505122903 20 221 8.0 22.5 0.00 1.83 1.83 73 1013.3
20260505122803 19 218 9.7 19.3 0.00 1.83 1.83 70 1013.4
20260505122703 20 220 9.7 22.5 0.00 1.83 1.83 71 1013.4
20260505122603 19 220 9.7 22.5 0.00 1.83 1.83 71 1013.3
20260505122503 19 220 11.3 22.5 0.00 1.83 1.83 73 1013.4
20260505122403 19 221 11.3 22.5 0.00 1.83 1.83 75 1013.4
20260505122305 19 220 11.3 22.5 0.00 1.83 1.83 74 1013.4
20260505122203 19 220 11.3 22.5 0.00 1.83 1.83 75 1013.4
20260505122103 19 219 11.3 22.5 0.00 1.83 1.83 76 1013.4
20260505122003 19 218 11.3 22.5 0.00 1.83 1.83 76 1013.4
20260505121903 19 217 11.3 22.5 0.00 1.83 1.83 76 1013.4
20260505121804 19 218 11.3 24.1 0.00 1.83 1.83 76 1013.3
20260505121703 19 218 11.3 24.1 0.00 1.83 1.83 76 1013.3
20260505121603 19 220 9.7 24.1 0.00 1.83 1.83 76 1013.3
20260505121503 19 220 9.7 24.1 0.00 1.83 1.83 75 1013.3
20260505121403 19 220 9.7 24.1 0.00 1.83 1.83 76 1013.3
20260505121303 19 219 9.7 24.1 0.00 1.83 1.83 76 1013.3
20260505121203 19 218 9.7 24.1 0.00 1.83 1.83 77 1013.3
20260505121103 19 219 11.3 24.1 0.00 1.83 1.83 76 1013.3
20260505121003 19 221 11.3 24.1 0.00 1.83 1.83 76 1013.4
20260505120903 19 223 11.3 24.1 0.00 1.83 1.83 76 1013.3
20260505120803 19 223 11.3 22.5 0.00 1.83 1.83 76 1013.3
20260505120703 19 223 11.3 22.5 0.00 1.83 1.83 75 1013.3
20260505120603 19 223 11.3 22.5 0.00 1.83 1.83 75 1013.3
20260505120503 19 223 11.3 22.5 0.00 1.83 1.83 73 1013.3
20260505120403 19 224 11.3 22.5 0.00 1.83 1.83 72 1013.3
20260505120303 18 225 11.3 22.5 0.00 1.83 1.83 74 1013.3
20260505120203 18 226 11.3 22.5 0.00 1.83 1.83 76 1013.3
20260505120103 18 226 11.3 22.5 0.00 1.83 1.83 76 1013.3
20260505120004 18 226 9.7 22.5 0.00 1.83 1.83 76 1013.2
20260505115903 19 226 9.7 22.5 0.00 1.83 1.83 76 1013.2
20260505115804 19 225 8.0 20.9 0.00 1.83 1.83 77 1013.2
20260505115703 19 224 8.0 20.9 0.00 1.83 1.83 77 1013.2
20260505115603 19 223 8.0 20.9 0.00 1.83 1.83 76 1013.2
20260505115503 19 222 6.4 20.9 0.00 1.83 1.83 76 1013.1
20260505115403 19 222 6.4 19.3 0.00 1.83 1.83 76 1013.1
20260505115305 19 222 6.4 17.7 0.00 1.83 1.83 76 1013.2
20260505115203 19 222 6.4 17.7 0.00 1.83 1.83 75 1013.2
20260505115103 19 220 6.4 17.7 0.00 1.83 1.83 75 1013.1
20260505115003 19 220 6.4 17.7 0.00 1.83 1.83 75 1013.2
20260505114903 19 219 6.4 17.7 0.00 1.83 1.83 76 1013.2
20260505114803 19 221 8.0 17.7 0.00 1.83 1.83 76 1013.2
20260505114703 19 220 8.0 17.7 0.00 1.83 1.83 76 1013.2
20260505114603 19 220 8.0 16.1 0.00 1.83 1.83 75 1013.2
20260505114503 19 221 8.0 17.7 0.00 1.83 1.83 75 1013.2
20260505114403 19 217 9.7 17.7 0.00 1.83 1.83 75 1013.2
20260505114304 19 216 9.7 17.7 0.00 1.83 1.83 77 1013.2
20260505114203 19 217 9.7 17.7 0.00 1.83 1.83 77 1013.2
20260505114103 19 216 9.7 17.7 0.00 1.83 1.83 77 1013.2
20260505114003 19 216 9.7 19.3 0.00 1.83 1.83 76 1013.3
20260505113903 19 217 9.7 19.3 0.00 1.83 1.83 76 1013.3
20260505113803 19 216 9.7 19.3 0.00 1.83 1.83 76 1013.3
20260505113703 19 217 9.7 19.3 0.00 1.83 1.83 77 1013.3
20260505113603 19 218 9.7 19.3 0.00 1.83 1.83 77 1013.4
20260505113503 19 216 9.7 22.5 0.00 1.83 1.83 76 1013.4
20260505113403 19 218 9.7 22.5 0.00 1.83 1.83 77 1013.3
20260505113303 19 218 9.7 22.5 0.00 1.83 1.83 76 1013.4
20260505113203 19 218 9.7 22.5 0.00 1.83 1.83 76 1013.4
20260505113103 19 218 9.7 22.5 0.00 1.83 1.83 76 1013.4
20260505113003 19 219 9.7 22.5 0.00 1.83 1.83 76 1013.4
20260505112903 19 217 9.7 22.5 0.00 1.83 1.83 76 1013.4
20260505112803 20 217 9.7 22.5 0.00 1.83 1.83 76 1013.4
20260505112703 20 217 9.7 22.5 0.00 1.83 1.83 76 1013.4
20260505112603 20 217 9.7 22.5 0.00 1.83 1.83 77 1013.4
20260505112503 20 217 9.7 19.3 0.00 1.83 1.83 77 1013.4
20260505112403 19 216 9.7 19.3 0.00 1.83 1.83 77 1013.4
20260505112304 19 215 9.7 19.3 0.00 1.83 1.83 76 1013.4
20260505112203 19 214 9.7 19.3 0.00 1.83 1.83 76 1013.3
20260505112103 19 216 9.7 19.3 0.00 1.83 1.83 76 1013.3
20260505112004 19 214 11.3 19.3 0.00 1.83 1.83 76 1013.3
20260505111903 19 212 11.3 19.3 0.00 1.83 1.83 76 1013.3
20260505111803 19 212 11.3 19.3 0.00 1.83 1.83 75 1013.2
20260505111703 19 212 11.3 19.3 0.00 1.83 1.83 76 1013.2
20260505111603 19 212 11.3 20.9 0.00 1.83 1.83 76 1013.2
20260505111503 19 212 11.3 20.9 0.00 1.83 1.83 77 1013.3
20260505111403 19 213 11.3 20.9 0.00 1.83 1.83 77 1013.3
20260505111303 19 213 11.3 22.5 0.00 1.83 1.83 77 1013.3
20260505111203 19 213 9.7 22.5 0.00 1.83 1.83 77 1013.2
20260505111103 19 211 9.7 22.5 0.00 1.83 1.83 77 1013.2
20260505111003 19 212 9.7 22.5 0.00 1.83 1.83 77 1013.2
20260505110903 19 213 9.7 22.5 0.00 1.83 1.83 77 1013.2
20260505110803 19 213 9.7 22.5 0.00 1.83 1.83 76 1013.2
20260505110703 19 213 9.7 22.5 0.00 1.83 1.83 76 1013.2
20260505110603 19 212 8.0 22.5 0.00 1.83 1.83 76 1013.2
20260505110503 19 212 8.0 22.5 0.00 1.83 1.83 76 1013.2
20260505110403 19 211 8.0 22.5 0.00 1.83 1.83 76 1013.2
20260505110303 19 209 8.0 19.3 0.00 1.83 1.83 76 1013.2
20260505110203 19 211 8.0 19.3 0.00 1.83 1.83 76 1013.2
20260505102203 19 207 9.7 19.3 0.00 1.83 1.83 75 1013.2
20260505102103 19 208 9.7 19.3 0.00 1.83 1.83 76 1013.2
20260505102004 19 210 9.7 19.3 0.00 1.83 1.83 76 1013.1
20260505101903 19 211 9.7 19.3 0.00 1.83 1.83 75 1013.1
20260505101803 19 212 9.7 19.3 0.00 1.83 1.83 76 1013.0
20260505101704 19 212 8.0 19.3 0.00 1.83 1.83 77 1013.0
20260505101603 19 214 8.0 19.3 0.00 1.83 1.83 77 1013.0
20260505101503 19 215 8.0 17.7 0.00 1.83 1.83 77 1013.0
20260505101403 19 215 8.0 17.7 0.00 1.83 1.83 77 1013.0
20260505101303 19 215 8.0 17.7 0.00 1.83 1.83 77 1013.0
20260505101203 19 216 6.4 17.7 0.00 1.83 1.83 77 1013.0
20260505101103 19 216 6.4 17.7 0.00 1.83 1.83 78 1013.0
20260505101003 19 216 6.4 17.7 0.00 1.83 1.83 78 1013.0
20260505100903 19 216 6.4 17.7 0.00 1.83 1.83 78 1013.0
20260505100804 19 216 6.4 16.1 0.00 1.83 1.83 78 1012.9
20260505100703 19 215 6.4 16.1 0.00 1.83 1.83 77 1012.9
20260505100603 19 215 6.4 14.5 0.00 1.83 1.83 79 1012.9
20260505100503 19 214 6.4 14.5 0.00 1.83 1.83 79 1012.9
20260505100403 19 215 6.4 17.7 0.00 1.83 1.83 80 1012.9
20260505100303 18 216 6.4 17.7 0.00 1.83 1.83 81 1012.9
20260505100203 18 216 6.4 17.7 0.00 1.83 1.83 81 1012.9
20260505100003 18 217 6.4 17.7 0.00 1.83 1.83 80 1012.8
20260505095903 18 218 6.4 17.7 0.00 1.83 1.83 82 1012.8
20260505095803 18 217 6.4 17.7 0.00 1.83 1.83 82 1012.9
20260505095703 18 219 6.4 17.7 0.00 1.83 1.83 81 1012.9
20260505095603 18 220 6.4 17.7 0.00 1.83 1.83 82 1012.9
20260505095503 18 220 6.4 17.7 0.00 1.83 1.83 82 1012.9
20260505095403 18 221 6.4 17.7 0.00 1.83 1.83 83 1012.9
20260505095305 18 222 6.4 17.7 0.00 1.83 1.83 81 1012.9
20260505095203 18 221 8.0 17.7 0.00 1.83 1.83 81 1012.9
20260505095103 18 222 8.0 17.7 0.00 1.83 1.83 82 1012.8
20260505095003 18 221 8.0 19.3 0.00 1.83 1.83 83 1012.8
20260505094903 18 220 8.0 19.3 0.00 1.83 1.83 83 1012.7
20260505094803 18 220 8.0 19.3 0.00 1.83 1.83 83 1012.7
20260505094703 18 218 8.0 19.3 0.00 1.83 1.83 82 1012.7
20260505094603 18 216 8.0 19.3 0.00 1.83 1.83 82 1012.7
20260505094503 18 216 6.4 19.3 0.00 1.83 1.83 83 1012.7
20260505094403 18 215 6.4 19.3 0.00 1.83 1.83 83 1012.7
20260505094303 18 214 6.4 19.3 0.00 1.83 1.83 83 1012.7
20260505094203 18 213 4.8 19.3 0.00 1.83 1.83 83 1012.8
20260505094103 18 214 4.8 20.9 0.00 1.83 1.83 83 1012.8
20260505094003 18 215 4.8 20.9 0.00 1.83 1.83 83 1012.7
20260505093903 18 215 3.2 20.9 0.00 1.83 1.83 83 1012.8
20260505093803 18 214 3.2 20.9 0.00 1.83 1.83 84 1012.8
20260505093703 18 215 3.2 20.9 0.00 1.83 1.83 84 1012.8
20260505093603 18 217 3.2 20.9 0.00 1.83 1.83 85 1012.8
20260505093503 18 218 3.2 20.9 0.00 1.83 1.83 85 1012.8
20260505093403 18 220 1.6 20.9 0.00 1.83 1.83 85 1012.8
20260505093303 18 222 1.6 20.9 0.00 1.83 1.83 85 1012.8
20260505093203 18 227 1.6 20.9 0.00 1.83 1.83 85 1012.8
20260505093103 17 228 1.6 14.5 0.00 1.83 1.83 85 1012.7
20260505093003 17 228 1.6 11.3 0.00 1.83 1.83 82 1012.7
20260505092903 17 229 1.6 11.3 0.00 1.83 1.83 84 1012.8
20260505092803 17 229 1.6 11.3 0.00 1.83 1.83 83 1012.7
20260505092703 17 231 1.6 11.3 0.00 1.83 1.83 82 1012.8
20260505092603 17 239 1.6 11.3 0.00 1.83 1.83 83 1012.7
20260505092503 17 280 1.6 8.0 0.00 1.83 1.83 83 1012.7
20260505092403 17 342 1.6 6.4 0.00 1.83 1.83 82 1012.7
20260505092305 17 7 1.6 6.4 0.00 1.83 1.83 82 1012.7
20260505092203 17 18 1.6 6.4 0.00 1.83 1.83 81 1012.7
20260505092103 17 18 1.6 6.4 0.00 1.83 1.83 82 1012.6
20260505092003 17 18 0.0 6.4 0.00 1.83 1.83 81 1012.6
20260505091903 17 18 0.0 6.4 0.00 1.83 1.83 81 1012.7
20260505091803 17 18 0.0 6.4 0.00 1.83 1.83 82 1012.6
20260505091703 17 18 0.0 6.4 0.00 1.83 1.83 82 1012.6
20260505091603 17 18 0.0 6.4 0.00 1.83 1.83 81 1012.6
20260505091503 17 0 0.0 6.4 0.00 1.83 1.83 82 1012.6
20260505091403 17 0 0.0 6.4 0.00 1.83 1.83 82 1012.6
20260505091304 17 0 0.0 3.2 0.00 1.83 1.83 83 1012.7
20260505091203 17 0 0.0 3.2 0.00 1.83 1.83 82 1012.6
20260505091103 17 0 0.0 3.2 0.00 1.83 1.83 82 1012.6
20260505091003 16 0 0.0 3.2 0.00 1.83 1.83 82 1012.6
20260505090903 16 0 0.0 3.2 0.00 1.83 1.83 83 1012.7
20260505090803 16 0 0.0 3.2 0.00 1.83 1.83 83 1012.7
20260505090703 16 0 0.0 3.2 0.00 1.83 1.83 83 1012.7
20260505090603 16 17 0.0 3.2 0.00 1.83 1.83 82 1012.6
20260505090504 16 17 0.0 3.2 0.00 1.83 1.83 82 1012.6
20260505090403 16 17 0.0 3.2 0.00 1.83 1.83 83 1012.6
20260505090303 16 17 0.0 3.2 0.00 1.83 1.83 83 1012.6
20260505090203 16 17 1.6 3.2 0.00 1.83 1.83 82 1012.6
20260505090104 16 17 1.6 3.2 0.00 1.83 1.83 82 1012.6
20260505090004 16 17 1.6 3.2 0.00 1.83 1.83 83 1012.6
20260505085903 16 17 1.6 3.2 0.00 1.83 1.83 82 1012.6
20260505085803 16 17 1.6 6.4 0.00 1.83 1.83 81 1012.6
20260505085703 16 17 3.2 6.4 0.00 1.83 1.83 81 1012.6
20260505085603 16 17 3.2 8.0 0.00 1.83 1.83 81 1012.6
20260505085503 16 11 3.2 9.7 0.00 1.83 1.83 82 1012.6
20260505085403 16 6 3.2 9.7 0.00 1.83 1.83 82 1012.5
20260505085304 16 2 3.2 14.5 0.00 1.83 1.83 81 1012.6
20260505085203 16 3 3.2 14.5 0.00 1.83 1.83 81 1012.6
20260505085103 16 8 3.2 14.5 0.00 1.83 1.83 80 1012.6
20260505085003 16 8 3.2 14.5 0.00 1.83 1.83 80 1012.5
20260505084903 16 6 3.2 14.5 0.00 1.83 1.83 80 1012.5
20260505084803 16 4 3.2 14.5 0.00 1.83 1.83 79 1012.5
20260505084703 16 3 1.6 14.5 0.00 1.83 1.83 80 1012.5
20260505084603 16 2 1.6 14.5 0.00 1.83 1.83 79 1012.5
20260505084503 16 1 1.6 14.5 0.00 1.83 1.83 80 1012.5
20260505084403 16 3 1.6 14.5 0.00 1.83 1.83 80 1012.5
20260505084303 16 6 1.6 14.5 0.00 1.83 1.83 82 1012.5
20260505084203 16 5 1.6 9.7 0.00 1.83 1.83 81 1012.5
20260505084103 16 355 1.6 9.7 0.00 1.83 1.83 82 1012.5
20260505084003 15 354 1.6 9.7 0.00 1.83 1.83 81 1012.5
20260505083903 15 354 1.6 8.0 0.00 1.83 1.83 83 1012.5
20260505083803 15 356 1.6 8.0 0.00 1.83 1.83 82 1012.5
20260505083703 15 354 1.6 8.0 0.00 1.83 1.83 83 1012.5
20260505083603 15 1 1.6 19.3 0.00 1.83 1.83 83 1012.5
20260505083503 15 360 1.6 19.3 0.00 1.83 1.83 83 1012.5
20260505083403 15 359 1.6 19.3 0.00 1.83 1.83 83 1012.5
20260505083305 15 358 3.2 19.3 0.00 1.83 1.83 82 1012.5
20260505083203 15 358 3.2 19.3 0.00 1.83 1.83 82 1012.5
20260505083103 15 356 3.2 19.3 0.00 1.83 1.83 82 1012.5
20260505083003 15 355 3.2 19.3 0.00 1.83 1.83 82 1012.5
20260505082904 15 354 3.2 19.3 0.00 1.83 1.83 82 1012.5
20260505082803 15 353 3.2 19.3 0.00 1.83 1.83 82 1012.5
20260505082703 15 353 1.6 19.3 0.00 1.83 1.83 81 1012.5
20260505082603 15 347 1.6 12.9 0.00 1.83 1.83 82 1012.5
20260505082503 15 347 1.6 12.9 0.00 1.83 1.83 82 1012.5
20260505082403 15 352 1.6 12.9 0.00 1.83 1.83 83 1012.5
20260505082304 15 4 1.6 12.9 0.00 1.83 1.83 82 1012.5
20260505082203 15 4 1.6 16.1 0.00 1.83 1.83 82 1012.5
20260505082103 15 6 1.6 16.1 0.00 1.83 1.83 83 1012.5
20260505082003 15 9 1.6 16.1 0.00 1.83 1.83 83 1012.5
20260505081903 15 11 1.6 16.1 0.00 1.83 1.83 83 1012.5
20260505081803 15 11 1.6 16.1 0.00 1.83 1.83 83 1012.4
20260505081703 15 10 0.0 16.1 0.00 1.83 1.83 83 1012.5
20260505081603 15 14 0.0 16.1 0.00 1.83 1.83 83 1012.4
20260505081503 15 13 0.0 16.1 0.00 1.83 1.83 83 1012.5
20260505081403 15 10 0.0 16.1 0.00 1.83 1.83 83 1012.5
20260505081304 15 359 0.0 16.1 0.00 1.83 1.83 85 1012.4
20260505081203 15 355 0.0 6.4 0.00 1.83 1.83 85 1012.4
20260505081103 15 355 0.0 6.4 0.00 1.83 1.83 85 1012.4
20260505081003 15 355 0.0 6.4 0.00 1.83 1.83 85 1012.4
20260505080903 15 353 0.0 6.4 0.00 1.83 1.83 86 1012.4
20260505080803 15 353 0.0 6.4 0.00 1.83 1.83 86 1012.4
20260505080703 15 5 0.0 6.4 0.00 1.83 1.83 86 1012.4
20260505080604 15 13 0.0 6.4 0.00 1.83 1.83 85 1012.4
20260505080503 15 13 0.0 6.4 0.00 1.83 1.83 86 1012.4
20260505080403 15 14 0.0 6.4 0.00 1.83 1.83 86 1012.5
20260505080303 15 19 0.0 6.4 0.03 1.83 1.83 86 1012.4
20260505080203 15 44 0.0 8.0 0.03 1.83 1.83 86 1012.5
20260505080103 15 40 0.0 8.0 0.03 1.83 1.83 86 1012.6
20260505080003 15 40 0.0 8.0 0.03 1.83 1.83 85 1012.6
20260505075903 15 48 0.0 8.0 0.03 1.83 1.83 86 1012.6
20260505075803 15 54 0.0 8.0 0.03 1.83 1.83 86 1012.6
20260505075703 15 0 0.0 8.0 0.03 1.83 1.83 87 1012.6
20260505075603 15 0 0.0 8.0 0.03 1.83 1.83 87 1012.6
20260505075503 15 0 0.0 8.0 0.03 1.83 1.83 87 1012.6
20260505075403 15 0 0.0 8.0 0.03 1.83 1.83 87 1012.6
20260505075304 15 0 0.0 8.0 0.03 1.83 1.83 87 1012.6
20260505075203 15 0 0.0 4.8 0.03 1.83 1.83 88 1012.6
20260505075103 15 0 0.0 3.2 0.03 1.83 1.83 88 1012.6
20260505075003 15 0 0.0 3.2 0.03 1.83 1.83 88 1012.7
20260505074903 15 0 0.0 0.0 0.03 1.83 1.83 88 1012.7
20260505074803 15 0 0.0 0.0 0.03 1.83 1.83 88 1012.7
20260505074703 15 0 0.0 0.0 0.03 1.83 1.83 89 1012.7
20260505074603 15 0 0.0 0.0 0.03 1.83 1.83 89 1012.7
20260505074503 15 0 0.0 0.0 0.03 1.83 1.83 89 1012.7
20260505074403 15 0 0.0 0.0 0.03 1.83 1.83 89 1012.7
20260505074303 15 0 0.0 0.0 0.03 1.83 1.83 89 1012.6
20260505074203 15 0 0.0 0.0 0.03 1.83 1.83 88 1012.6
20260505074103 15 0 0.0 0.0 0.03 1.83 1.83 88 1012.6
20260505074003 15 0 0.0 0.0 0.03 1.83 1.83 88 1012.6
20260505073903 15 0 0.0 0.0 0.03 1.83 1.83 88 1012.6
20260505073803 15 0 0.0 0.0 0.03 1.83 1.83 88 1012.6
20260505073703 15 0 0.0 0.0 0.05 1.83 1.83 88 1012.5
20260505073603 15 0 0.0 0.0 0.05 1.83 1.83 88 1012.6
20260505073503 15 0 0.0 0.0 0.05 1.83 1.83 88 1012.6
20260505073404 15 0 0.0 0.0 0.05 1.83 1.83 88 1012.6
20260505073303 15 0 1.6 0.0 0.05 1.83 1.83 88 1012.6
20260505073204 15 13 1.6 3.2 0.05 1.83 1.83 88 1012.6
20260505073103 15 29 1.6 9.7 0.08 1.83 1.83 88 1012.6
20260505073003 15 29 1.6 9.7 0.08 1.83 1.83 88 1012.5
20260505072903 15 29 1.6 9.7 0.08 1.83 1.83 88 1012.5
20260505072805 15 29 1.6 9.7 0.08 1.83 1.83 88 1012.5
20260505072703 15 28 1.6 9.7 0.08 1.83 1.83 88 1012.5
20260505072603 15 25 1.6 9.7 0.08 1.83 1.83 88 1012.5
20260505072503 15 25 1.6 9.7 0.08 1.83 1.83 88 1012.5
20260505072403 15 25 1.6 9.7 0.08 1.83 1.83 88 1012.6
20260505072305 15 25 0.0 9.7 0.08 1.83 1.83 88 1012.6
20260505072203 15 25 0.0 9.7 0.08 1.83 1.83 88 1012.6
20260505072103 15 22 0.0 8.0 0.08 1.83 1.83 88 1012.5
20260505072003 15 22 0.0 8.0 0.08 1.83 1.83 88 1012.5
20260505071903 15 21 0.0 8.0 0.08 1.83 1.83 88 1012.5
20260505071805 15 0 0.0 8.0 0.08 1.83 1.83 88 1012.5
20260505071703 15 0 0.0 8.0 0.08 1.83 1.83 89 1012.5
20260505071603 15 0 0.0 0.0 0.08 1.83 1.83 89 1012.4
20260505071503 15 0 0.0 0.0 0.08 1.83 1.83 89 1012.5
20260505071403 15 0 0.0 0.0 0.08 1.83 1.83 89 1012.4
20260505071303 15 0 0.0 0.0 0.08 1.83 1.83 89 1012.4
20260505071203 15 0 0.0 0.0 0.08 1.83 1.83 89 1012.4
20260505071103 15 0 0.0 0.0 0.08 1.83 1.83 89 1012.5
20260505071003 15 0 0.0 0.0 0.08 1.83 1.83 89 1012.4
20260505070903 15 0 0.0 0.0 0.08 1.83 1.83 89 1012.4
20260505070803 15 0 0.0 0.0 0.08 1.83 1.83 89 1012.4
20260505070703 15 0 0.0 0.0 0.08 1.83 1.83 89 1012.4
20260505070603 15 0 0.0 0.0 0.08 1.83 1.83 88 1012.4
20260505070503 15 0 0.0 0.0 0.08 1.83 1.83 88 1012.4
20260505070403 15 0 0.0 0.0 0.08 1.83 1.83 88 1012.4
20260505070303 15 0 0.0 0.0 0.05 1.80 1.80 88 1012.4
20260505070203 15 0 0.0 0.0 0.05 1.80 1.80 88 1012.5
20260505070004 15 0 0.0 0.0 0.05 1.80 1.80 87 1012.4
20260505065903 15 0 0.0 0.0 0.05 1.80 1.80 87 1012.4
20260505065803 15 0 0.0 0.0 0.05 1.80 1.80 87 1012.5
20260505065703 15 0 0.0 0.0 0.05 1.80 1.80 87 1012.4
20260505065603 15 0 0.0 0.0 0.05 1.80 1.80 87 1012.5
20260505065503 15 0 0.0 0.0 0.05 1.80 1.80 87 1012.4
20260505065403 15 0 0.0 0.0 0.08 1.80 1.80 87 1012.4
20260505065304 15 0 0.0 0.0 0.08 1.80 1.80 87 1012.4
20260505065203 15 0 0.0 0.0 0.08 1.80 1.80 87 1012.3
20260505065103 15 0 0.0 0.0 0.08 1.80 1.80 87 1012.3
20260505065003 15 0 0.0 0.0 0.08 1.80 1.80 87 1012.3
20260505064903 15 0 0.0 0.0 0.08 1.80 1.80 87 1012.2
20260505064803 15 0 0.0 0.0 0.10 1.80 1.80 87 1012.2
20260505064703 15 0 0.0 0.0 0.10 1.80 1.80 87 1012.3
20260505064603 15 0 0.0 0.0 0.10 1.80 1.80 87 1012.3
20260505064506 15 0 0.0 0.0 0.10 1.80 1.80 88 1012.2
20260505064403 15 0 0.0 0.0 0.13 1.80 1.80 87 1012.2
20260505064303 15 9 0.0 3.2 0.13 1.80 1.80 87 1012.2
20260505064203 15 9 0.0 4.8 0.15 1.80 1.80 87 1012.2
20260505064103 15 9 0.0 4.8 0.15 1.80 1.80 87 1012.1
20260505064003 15 9 0.0 4.8 0.15 1.80 1.80 87 1012.1
20260505063903 15 9 0.0 4.8 0.15 1.80 1.80 87 1012.1
20260505063803 15 9 1.6 4.8 0.18 1.80 1.80 87 1012.1
20260505063704 15 9 1.6 4.8 0.15 1.78 1.78 87 1012.1
20260505063603 15 2 1.6 6.4 0.18 1.78 1.78 87 1012.1
20260505063503 15 353 1.6 6.4 0.20 1.78 1.78 87 1012.1
20260505063403 15 346 1.6 6.4 0.20 1.78 1.78 87 1012.1
20260505063303 15 343 1.6 6.4 0.20 1.75 1.75 87 1012.1
20260505063203 15 336 1.6 6.4 0.23 1.75 1.75 86 1012.1
20260505063103 15 336 1.6 6.4 0.20 1.75 1.75 86 1012.1
20260505063003 15 336 1.6 6.4 0.23 1.75 1.75 86 1012.1
20260505062903 15 336 1.6 6.4 0.23 1.75 1.75 86 1012.0
20260505062803 15 329 1.6 6.4 0.25 1.75 1.75 85 1012.0
20260505062703 15 323 1.6 6.4 0.25 1.75 1.75 85 1012.0
20260505062603 15 315 1.6 6.4 0.28 1.75 1.75 85 1011.9
20260505062503 15 316 1.6 6.4 0.28 1.75 1.75 86 1011.9
20260505062403 15 316 1.6 6.4 0.30 1.75 1.75 86 1011.8
20260505062304 15 316 1.6 6.4 0.30 1.75 1.75 86 1011.7
20260505062203 15 316 1.6 6.4 0.33 1.75 1.75 86 1011.7
20260505062103 15 316 1.6 6.4 0.33 1.75 1.75 86 1011.6
20260505062003 15 316 1.6 8.0 0.33 1.75 1.75 86 1011.5
20260505061903 15 314 1.6 8.0 0.36 1.75 1.75 86 1011.4
20260505061803 15 314 1.6 8.0 0.38 1.75 1.75 86 1011.4
20260505061703 15 320 1.6 8.0 0.38 1.75 1.75 87 1011.4
20260505061603 15 322 1.6 8.0 0.41 1.75 1.75 87 1011.4
20260505061503 15 323 1.6 8.0 0.43 1.75 1.75 87 1011.4
20260505061403 15 324 1.6 8.0 0.43 1.75 1.75 86 1011.4
20260505061303 15 324 1.6 8.0 0.43 1.75 1.75 86 1011.4
20260505061203 15 326 1.6 8.0 0.43 1.75 1.75 86 1011.3
20260505061103 15 337 1.6 8.0 0.46 1.75 1.75 86 1011.4
20260505061003 15 352 1.6 6.4 0.48 1.75 1.75 86 1011.5
20260505060903 15 3 1.6 6.4 0.48 1.75 1.75 86 1011.4
20260505060803 15 8 1.6 6.4 0.48 1.75 1.75 86 1011.4
20260505060703 15 18 0.0 4.8 0.51 1.75 1.75 87 1011.3
20260505060603 15 18 0.0 4.8 0.51 1.75 1.75 87 1011.4
20260505060503 15 18 0.0 4.8 0.51 1.75 1.75 86 1011.4
20260505060403 15 18 0.0 4.8 0.51 1.75 1.75 86 1011.4
20260505060303 15 18 0.0 4.8 0.53 1.75 1.75 86 1011.3
20260505060203 15 0 0.0 4.8 0.53 1.75 1.75 86 1011.3
20260505060103 15 0 0.0 4.8 0.56 1.75 1.75 86 1011.4
20260505060003 15 0 0.0 3.2 0.56 1.75 1.75 87 1011.4
20260505055903 15 19 0.0 3.2 0.58 1.75 1.75 87 1011.3
20260505055803 15 19 0.0 3.2 0.58 1.75 1.75 87 1011.4
20260505055704 15 15 0.0 3.2 0.61 1.75 1.75 87 1011.4
20260505055603 15 15 0.0 3.2 0.61 1.75 1.75 87 1011.4
20260505055503 15 15 1.6 3.2 0.61 1.75 1.75 87 1011.4
20260505055403 15 340 1.6 6.4 0.61 1.73 1.73 87 1011.3
20260505055304 15 320 1.6 6.4 0.61 1.73 1.73 87 1011.4
20260505055203 15 320 1.6 6.4 0.61 1.73 1.73 87 1011.4
20260505055103 15 319 1.6 6.4 0.61 1.73 1.73 87 1011.4
20260505055003 15 311 3.2 6.4 0.64 1.73 1.73 87 1011.3
20260505054804 15 294 3.2 11.3 0.64 1.70 1.70 86 1011.2
20260505054703 15 289 3.2 11.3 0.64 1.70 1.70 87 1011.3
20260505054603 15 318 3.2 22.5 0.66 1.70 1.70 86 1011.2
20260505054503 15 330 3.2 22.5 0.69 1.70 1.70 86 1011.2
20260505054403 15 334 3.2 22.5 0.66 1.68 1.68 86 1011.3
20260505054303 15 337 3.2 22.5 0.69 1.68 1.68 86 1011.3
20260505054203 15 337 3.2 22.5 0.69 1.65 1.65 86 1011.4
20260505054103 15 336 3.2 22.5 0.69 1.65 1.65 86 1011.4
20260505054003 15 339 3.2 22.5 0.71 1.65 1.65 85 1011.3
20260505053903 15 341 3.2 22.5 0.71 1.65 1.65 86 1011.3
20260505053803 15 339 3.2 22.5 0.71 1.63 1.63 86 1011.2
20260505053703 15 325 3.2 22.5 0.71 1.63 1.63 85 1011.1
20260505053603 15 303 3.2 16.1 0.71 1.60 1.60 86 1011.1
20260505053503 15 286 3.2 11.3 0.71 1.57 1.57 86 1011.2
20260505053403 15 269 3.2 11.3 0.71 1.57 1.57 86 1011.2
20260505053303 15 268 3.2 11.3 0.71 1.55 1.55 86 1011.2
20260505053203 15 267 3.2 11.3 0.69 1.55 1.55 86 1011.2
20260505053103 15 251 3.2 11.3 0.69 1.55 1.55 85 1011.4
20260505053003 15 244 3.2 11.3 0.66 1.52 1.52 85 1011.3
20260505052903 15 237 4.8 27.4 0.66 1.50 1.50 85 1011.3
20260505052803 15 240 4.8 27.4 0.64 1.47 1.47 86 1011.3
20260505052703 15 252 4.8 27.4 0.64 1.47 1.47 86 1011.2
20260505052603 15 255 4.8 27.4 0.64 1.45 1.45 86 1011.3
20260505052504 15 257 4.8 27.4 0.64 1.45 1.45 86 1011.3
20260505052403 15 274 3.2 27.4 0.64 1.45 1.45 85 1011.1
20260505052304 15 286 3.2 27.4 0.64 1.45 1.45 85 1011.0
20260505052203 15 288 3.2 27.4 0.64 1.42 1.42 85 1011.1
20260505052103 15 300 3.2 27.4 0.61 1.40 1.40 85 1011.1
20260505052003 15 311 3.2 27.4 0.64 1.40 1.40 85 1011.2
20260505051905 15 329 1.6 14.5 0.64 1.37 1.37 86 1011.3
20260505051803 15 335 1.6 14.5 0.64 1.37 1.37 86 1011.2
20260505051703 15 334 1.6 14.5 0.64 1.37 1.37 85 1011.2
20260505051603 15 334 1.6 14.5 0.64 1.35 1.35 85 1011.4
20260505051503 15 337 1.6 14.5 0.61 1.32 1.32 86 1011.4
20260505051403 15 330 0.0 12.9 0.61 1.30 1.30 86 1011.4
20260505051303 15 325 0.0 12.9 0.61 1.30 1.30 86 1011.4
20260505051203 15 325 0.0 12.9 0.61 1.30 1.30 86 1011.4
20260505051103 15 318 0.0 12.9 0.61 1.27 1.27 87 1011.6
20260505051003 15 300 0.0 6.4 0.58 1.27 1.27 87 1011.8
20260505050903 15 0 0.0 6.4 0.58 1.27 1.27 87 1012.0
20260505050803 14 0 0.0 6.4 0.58 1.27 1.27 87 1012.0
20260505050703 14 0 0.0 6.4 0.56 1.24 1.24 87 1012.0
20260505050603 14 0 0.0 6.4 0.56 1.24 1.24 88 1012.1
20260505050503 14 0 0.0 6.4 0.53 1.22 1.22 88 1012.1
20260505050403 14 0 0.0 6.4 0.53 1.22 1.22 88 1012.1
20260505050303 14 0 0.0 6.4 0.51 1.19 1.19 89 1012.2
20260505050203 14 0 0.0 6.4 0.51 1.19 1.19 89 1012.1
20260505050103 14 360 0.0 1.6 0.51 1.17 1.17 88 1012.1
20260505041703 14 0 0.0 12.9 0.15 0.71 0.71 85 1012.4
20260505041603 14 0 0.0 12.9 0.13 0.71 0.71 85 1012.3
20260505041503 14 16 0.0 12.9 0.13 0.71 0.71 85 1012.3
20260505041403 14 16 0.0 12.9 0.10 0.69 0.69 85 1012.2
20260505041303 14 0 0.0 0.0 0.10 0.69 0.69 86 1012.2
20260505041203 14 0 0.0 0.0 0.10 0.69 0.69 86 1012.2
20260505041103 14 0 0.0 0.0 0.10 0.69 0.69 87 1012.2
20260505041003 14 0 1.6 0.0 0.10 0.69 0.69 87 1012.2
20260505040903 14 0 1.6 0.0 0.10 0.69 0.69 87 1012.2
20260505040803 14 0 1.6 0.0 0.10 0.69 0.69 86 1012.2
20260505040703 14 352 1.6 6.4 0.10 0.69 0.69 86 1012.2
20260505040603 14 350 1.6 6.4 0.10 0.69 0.69 86 1012.2
20260505040503 14 3 1.6 9.7 0.10 0.69 0.69 86 1012.1
20260505040403 14 5 1.6 12.9 0.10 0.69 0.69 86 1012.1
20260505040303 14 9 1.6 12.9 0.10 0.69 0.69 85 1012.2
20260505040203 14 9 1.6 12.9 0.10 0.69 0.69 85 1012.2
20260505040103 14 9 1.6 12.9 0.10 0.69 0.69 85 1012.1
20260505040004 14 12 1.6 12.9 0.10 0.69 0.69 85 1012.1
20260505035903 14 12 1.6 12.9 0.10 0.69 0.69 85 1012.1
20260505035803 14 12 1.6 12.9 0.10 0.69 0.69 85 1012.1
20260505035703 14 13 1.6 12.9 0.10 0.69 0.69 85 1012.1
20260505035603 14 20 1.6 12.9 0.13 0.69 0.69 85 1012.1
20260505035503 14 24 1.6 12.9 0.13 0.69 0.69 85 1012.1
20260505035403 14 39 1.6 6.4 0.10 0.66 0.66 86 1012.2
20260505035304 14 39 1.6 4.8 0.10 0.66 0.66 86 1012.2
20260505035203 14 20 1.6 9.7 0.10 0.66 0.66 86 1012.2
20260505035103 14 19 1.6 9.7 0.10 0.66 0.66 85 1012.2
20260505035003 14 13 1.6 9.7 0.08 0.64 0.64 86 1012.2
20260505034903 14 13 1.6 9.7 0.08 0.64 0.64 86 1012.2
20260505034803 14 13 1.6 9.7 0.08 0.64 0.64 86 1012.3
20260505034703 14 13 0.0 9.7 0.08 0.64 0.64 86 1012.3
20260505034603 14 11 0.0 9.7 0.10 0.64 0.64 86 1012.2
20260505034503 14 11 0.0 9.7 0.10 0.64 0.64 86 1012.2
20260505034403 14 11 0.0 9.7 0.08 0.61 0.61 86 1012.4
20260505034303 14 10 0.0 9.7 0.08 0.61 0.61 86 1012.3
20260505034203 14 0 0.0 8.0 0.05 0.61 0.61 86 1012.3
20260505034103 14 0 0.0 4.8 0.08 0.61 0.61 86 1012.4
20260505034003 14 0 0.0 4.8 0.05 0.58 0.58 86 1012.4
20260505033903 14 0 0.0 6.4 0.05 0.58 0.58 86 1012.3
20260505033803 14 0 0.0 6.4 0.08 0.58 0.58 85 1012.3
20260505033703 14 0 0.0 6.4 0.08 0.58 0.58 86 1012.4
20260505033603 14 0 0.0 6.4 0.08 0.58 0.58 87 1012.3
20260505033503 14 0 0.0 6.4 0.08 0.58 0.58 87 1012.4
20260505033403 14 0 0.0 6.4 0.08 0.58 0.58 87 1012.5
20260505033303 14 0 0.0 6.4 0.10 0.58 0.58 87 1012.4
20260505033203 14 0 0.0 6.4 0.10 0.58 0.58 87 1012.4
20260505033104 14 0 0.0 6.4 0.10 0.58 0.58 87 1012.4
20260505033003 14 0 0.0 6.4 0.13 0.58 0.58 87 1012.4
20260505032903 14 0 0.0 0.0 0.13 0.58 0.58 87 1012.5
20260505032803 14 0 0.0 0.0 0.13 0.58 0.58 87 1012.5
20260505032704 14 0 0.0 0.0 0.15 0.58 0.58 86 1012.6
20260505032603 14 0 0.0 0.0 0.15 0.58 0.58 86 1012.6
20260505032503 14 0 0.0 0.0 0.15 0.58 0.58 86 1012.5
20260505032403 14 0 0.0 0.0 0.15 0.58 0.58 86 1012.6
20260505032304 14 0 0.0 0.0 0.15 0.58 0.58 86 1012.7
20260505032203 14 0 0.0 0.0 0.15 0.58 0.58 86 1012.7
20260505032103 14 0 0.0 0.0 0.18 0.58 0.58 85 1012.7
20260505032003 14 0 0.0 0.0 0.18 0.58 0.58 85 1012.6
20260505031903 14 0 0.0 0.0 0.18 0.58 0.58 86 1012.7
20260505031803 14 0 0.0 0.0 0.18 0.58 0.58 86 1012.7
20260505031703 14 0 0.0 0.0 0.20 0.58 0.58 86 1012.8
20260505031603 14 0 0.0 0.0 0.20 0.58 0.58 85 1012.8
20260505031503 14 0 0.0 4.8 0.20 0.58 0.58 86 1012.8
20260505031403 14 0 0.0 4.8 0.20 0.58 0.58 85 1012.8
20260505031303 14 0 0.0 4.8 0.20 0.58 0.58 86 1012.7
20260505031203 14 0 0.0 4.8 0.23 0.58 0.58 86 1012.8
20260505031103 14 0 0.0 4.8 0.23 0.58 0.58 85 1012.7
20260505031003 14 0 0.0 4.8 0.23 0.58 0.58 85 1012.8
20260505030903 14 0 0.0 4.8 0.23 0.58 0.58 84 1012.8
20260505030803 14 0 0.0 4.8 0.23 0.58 0.58 85 1012.8
20260505030703 14 0 0.0 4.8 0.23 0.58 0.58 85 1012.9
20260505030603 14 0 0.0 4.8 0.23 0.58 0.58 85 1012.9
20260505030503 14 0 0.0 4.8 0.25 0.58 0.58 85 1013.0
20260505030403 14 0 0.0 0.0 0.25 0.58 0.58 85 1013.0
20260505030303 14 0 0.0 0.0 0.25 0.58 0.58 85 1012.9
20260505030203 14 0 0.0 0.0 0.28 0.58 0.58 86 1013.0
20260505030103 14 0 0.0 0.0 0.28 0.58 0.58 86 1013.0
20260505030003 14 0 0.0 0.0 0.30 0.58 0.58 86 1013.0
20260505025903 14 0 0.0 0.0 0.30 0.58 0.58 86 1013.0
20260505025803 14 0 0.0 0.0 0.30 0.58 0.58 85 1013.1
20260505025703 14 0 0.0 0.0 0.33 0.58 0.58 85 1013.0
20260505025603 14 0 0.0 0.0 0.30 0.56 0.56 85 1013.1
20260505025503 14 0 0.0 0.0 0.30 0.56 0.56 84 1013.1
20260505025403 14 0 0.0 0.0 0.33 0.56 0.56 85 1013.1
20260505025305 14 0 0.0 0.0 0.33 0.56 0.56 85 1013.2
20260505025203 14 0 0.0 0.0 0.33 0.56 0.56 85 1013.2
20260505025104 14 0 0.0 0.0 0.33 0.56 0.56 86 1013.3
20260505025004 14 0 0.0 0.0 0.33 0.56 0.56 85 1013.3
20260505024903 14 0 0.0 0.0 0.33 0.56 0.56 85 1013.3
20260505024803 14 119 1.6 1.6 0.33 0.56 0.56 85 1013.3
20260505024703 14 37 1.6 4.8 0.33 0.56 0.56 85 1013.4
20260505024603 14 36 1.6 4.8 0.33 0.53 0.53 85 1013.4
20260505024503 14 35 1.6 4.8 0.33 0.53 0.53 84 1013.4
20260505024403 14 23 1.6 8.0 0.33 0.53 0.53 84 1013.4
20260505024303 14 20 1.6 8.0 0.36 0.53 0.53 84 1013.3
20260505024203 14 14 1.6 8.0 0.36 0.53 0.53 84 1013.4
20260505024103 14 14 1.6 8.0 0.33 0.51 0.51 83 1013.5
20260505024003 14 14 1.6 8.0 0.33 0.51 0.51 83 1013.4
20260505023903 14 351 1.6 8.0 0.33 0.51 0.51 84 1013.4
20260505023803 14 350 1.6 8.0 0.33 0.51 0.51 84 1013.5
20260505023703 14 344 1.6 8.0 0.33 0.51 0.51 85 1013.4
20260505023603 14 339 1.6 8.0 0.33 0.51 0.51 84 1013.4
20260505023503 14 333 1.6 8.0 0.33 0.51 0.51 84 1013.5
20260505023403 14 314 1.6 8.0 0.33 0.51 0.51 84 1013.5
20260505023303 14 304 1.6 9.7 0.33 0.48 0.48 84 1013.5
20260505023203 14 269 1.6 11.3 0.33 0.48 0.48 84 1013.6
20260505023103 14 271 1.6 11.3 0.33 0.48 0.48 84 1013.6
20260505023003 14 274 1.6 11.3 0.33 0.46 0.46 83 1013.6
20260505022903 14 289 1.6 11.3 0.33 0.46 0.46 83 1013.6
20260505022803 14 289 1.6 11.3 0.33 0.46 0.46 84 1013.6
20260505022703 14 289 0.0 11.3 0.30 0.43 0.46 84 1013.6
20260505022603 14 289 0.0 11.3 0.30 0.43 0.43 84 1013.6
20260505022503 14 289 0.0 11.3 0.33 0.43 0.43 85 1013.6
20260505022403 14 289 0.0 11.3 0.33 0.43 0.43 85 1013.6
20260505022304 13 301 0.0 11.3 0.30 0.43 0.43 85 1013.6
20260505022203 13 0 0.0 6.4 0.33 0.43 0.43 87 1013.7
20260505022103 13 0 0.0 6.4 0.30 0.41 0.41 87 1013.7
20260505022003 13 0 0.0 9.7 0.30 0.41 0.41 87 1013.7
20260505021903 13 0 0.0 9.7 0.30 0.41 0.41 87 1013.7
20260505021803 13 0 0.0 9.7 0.30 0.41 0.41 87 1013.7
20260505021703 14 0 0.0 9.7 0.30 0.38 0.38 87 1013.7
20260505021603 14 0 0.0 9.7 0.30 0.38 0.38 87 1013.7
20260505021503 14 0 0.0 9.7 0.30 0.38 0.38 87 1013.8
20260505021403 14 0 0.0 9.7 0.30 0.38 0.38 87 1013.8
20260505021303 14 0 0.0 9.7 0.30 0.38 0.38 87 1013.7
20260505021203 14 0 0.0 9.7 0.28 0.36 0.36 87 1013.7
20260505021103 14 0 0.0 9.7 0.28 0.36 0.36 87 1013.7
20260505021003 14 0 0.0 0.0 0.28 0.36 0.36 88 1013.8
20260505020903 14 0 0.0 0.0 0.25 0.33 0.33 88 1013.9
20260505020803 14 0 0.0 0.0 0.28 0.33 0.33 88 1013.9
20260505020603 14 0 0.0 0.0 0.28 0.33 0.33 88 1014.0
20260505020503 14 0 0.0 0.0 0.25 0.33 0.33 88 1014.0
20260505020403 14 0 0.0 0.0 0.25 0.33 0.33 88 1014.0
20260505020303 14 0 0.0 0.0 0.25 0.33 0.33 88 1014.0
20260505020203 14 0 0.0 0.0 0.23 0.30 0.30 88 1014.0
20260505020103 14 0 0.0 0.0 0.23 0.30 0.30 88 1014.0
20260505020003 14 0 0.0 0.0 0.23 0.28 0.28 88 1014.0
20260505015903 14 0 0.0 0.0 0.23 0.28 0.28 88 1013.9
20260505015803 14 0 0.0 0.0 0.23 0.28 0.28 88 1014.0
20260505015703 14 0 0.0 0.0 0.23 0.25 0.25 88 1014.0
20260505015603 14 0 0.0 0.0 0.23 0.25 0.25 88 1013.9
20260505015503 14 0 0.0 0.0 0.23 0.25 0.25 88 1014.0
20260505015403 14 0 0.0 0.0 0.23 0.23 0.23 88 1014.0
20260505015304 14 0 0.0 0.0 0.23 0.23 0.23 87 1014.0
20260505015203 14 0 0.0 0.0 0.23 0.23 0.23 87 1014.0
20260505015103 14 0 0.0 0.0 0.23 0.23 0.23 87 1014.1
20260505015003 14 0 0.0 0.0 0.20 0.23 0.23 87 1014.1
20260505014903 14 0 0.0 0.0 0.20 0.23 0.23 87 1014.2
20260505014803 14 0 0.0 0.0 0.20 0.23 0.23 87 1014.1
20260505014703 14 0 0.0 0.0 0.23 0.23 0.23 87 1014.1
20260505014603 14 0 0.0 0.0 0.20 0.20 0.20 87 1014.1
20260505014503 14 0 0.0 0.0 0.20 0.20 0.20 87 1014.2
20260505014403 14 0 0.0 0.0 0.20 0.20 0.20 87 1014.2
20260505014303 14 0 0.0 0.0 0.18 0.18 0.18 86 1014.2
20260505014205 14 0 0.0 0.0 0.18 0.18 0.18 87 1014.2
20260505014103 14 0 0.0 0.0 0.18 0.18 0.18 87 1014.2
20260505014003 14 0 0.0 0.0 0.18 0.18 0.18 87 1014.2
20260505013903 14 0 0.0 0.0 0.18 0.18 0.18 87 1014.2
20260505013803 14 0 0.0 0.0 0.15 0.15 0.15 87 1014.2
20260505013703 14 0 0.0 0.0 0.15 0.15 0.15 87 1014.2
20260505013603 14 0 0.0 0.0 0.15 0.15 0.15 87 1014.2
20260505013503 14 0 0.0 0.0 0.15 0.15 0.15 86 1014.2
20260505013403 14 0 0.0 0.0 0.15 0.15 0.15 86 1014.2
20260505013303 14 0 0.0 0.0 0.15 0.15 0.15 85 1014.2
20260505013203 14 0 0.0 0.0 0.15 0.15 0.15 85 1014.2
20260505013103 14 0 0.0 3.2 0.15 0.15 0.15 86 1014.2
20260505013003 14 0 0.0 4.8 0.15 0.15 0.15 85 1014.3
20260505012903 14 0 0.0 4.8 0.15 0.15 0.15 85 1014.2
20260505012803 14 0 0.0 4.8 0.15 0.15 0.15 86 1014.3
20260505012703 14 0 0.0 4.8 0.15 0.15 0.15 86 1014.2
20260505012603 14 0 0.0 4.8 0.15 0.15 0.15 85 1014.2
20260505012503 14 0 0.0 4.8 0.13 0.13 0.15 85 1014.3
20260505012403 14 0 0.0 4.8 0.13 0.13 0.13 85 1014.3
20260505012304 14 0 0.0 4.8 0.13 0.13 0.13 85 1014.3
20260505012203 14 0 0.0 4.8 0.10 0.10 0.10 85 1014.3
20260505012103 15 0 0.0 4.8 0.10 0.10 0.10 85 1014.3
20260505012003 15 0 0.0 0.0 0.10 0.10 0.10 85 1014.3
20260505011903 15 0 0.0 0.0 0.10 0.10 0.10 85 1014.3
20260505011803 15 0 0.0 0.0 0.10 0.10 0.10 85 1014.3
20260505011703 15 0 0.0 0.0 0.08 0.08 0.08 85 1014.4
20260505011603 15 0 0.0 0.0 0.08 0.08 0.08 85 1014.3
20260505011503 15 0 0.0 0.0 0.08 0.08 0.08 85 1014.3
20260505011403 15 0 0.0 0.0 0.08 0.08 0.08 85 1014.4
20260505011303 15 0 0.0 0.0 0.08 0.08 0.08 85 1014.4
20260505011203 15 0 0.0 0.0 0.08 0.08 0.08 84 1014.4
20260505011103 15 0 0.0 0.0 0.08 0.08 0.08 84 1014.4
20260505011003 15 0 0.0 0.0 0.08 0.08 0.08 84 1014.5
20260505010903 15 0 0.0 0.0 0.08 0.08 0.08 83 1014.5
20260505010803 15 0 0.0 0.0 0.05 0.05 0.05 84 1014.5
20260505010703 15 0 0.0 0.0 0.05 0.05 0.05 83 1014.5
20260505010603 15 0 0.0 0.0 0.05 0.05 0.05 83 1014.5
20260505010503 15 0 0.0 1.6 0.05 0.05 0.05 83 1014.6
20260505010403 15 0 0.0 1.6 0.05 0.05 0.05 82 1014.6
20260505010303 15 0 0.0 1.6 0.05 0.05 0.05 82 1014.6
20260505010203 15 0 0.0 1.6 0.05 0.05 0.05 82 1014.6
20260505010103 15 0 0.0 1.6 0.05 0.05 0.05 82 1014.6
20260505010004 15 0 0.0 1.6 0.05 0.05 0.05 82 1014.6
20260505005903 15 0 0.0 1.6 0.05 0.05 0.05 81 1014.7
20260505005803 15 0 0.0 3.2 0.05 0.05 0.05 81 1014.7
20260505005703 15 0 0.0 3.2 0.05 0.05 0.05 81 1014.7
20260505005603 15 0 0.0 3.2 0.05 0.05 0.05 79 1014.7
20260505005503 15 0 0.0 3.2 0.03 0.03 0.03 81 1014.8
20260505005403 15 0 0.0 3.2 0.03 0.03 0.03 80 1014.8
20260505005304 15 0 0.0 3.2 0.03 0.03 0.03 81 1014.9
20260505005203 15 0 0.0 3.2 0.03 0.03 0.03 80 1014.9
20260505005104 15 0 0.0 3.2 0.03 0.03 0.03 79 1014.9
20260505005004 15 0 0.0 3.2 0.03 0.03 0.03 79 1014.9
20260505004903 15 0 0.0 3.2 0.03 0.03 0.03 80 1014.9
20260505004803 15 0 0.0 0.0 0.03 0.03 0.03 80 1015.0
20260505004703 15 0 0.0 0.0 0.00 0.00 0.00 80 1015.0
20260505004603 15 0 0.0 0.0 0.00 0.00 0.00 80 1015.0
20260505004503 15 0 0.0 0.0 0.00 0.00 0.00 80 1015.1
20260505004403 15 0 0.0 0.0 0.00 0.00 0.00 79 1015.2
20260505004303 16 0 0.0 0.0 0.00 0.00 0.00 79 1015.2
20260505004203 16 0 0.0 0.0 0.00 0.00 0.00 79 1015.2
20260505004103 16 0 0.0 0.0 0.00 0.00 0.00 79 1015.2
20260505004003 16 0 0.0 0.0 0.00 0.00 0.00 79 1015.2
20260505003903 16 0 0.0 0.0 0.00 0.00 0.00 79 1015.3
20260505003803 16 0 0.0 0.0 0.00 0.00 0.00 79 1015.2
20260505003704 16 0 0.0 0.0 0.00 0.00 0.00 79 1015.3
20260505003603 16 0 0.0 0.0 0.00 0.00 0.00 79 1015.2
20260505003503 16 0 0.0 4.8 0.00 0.00 0.00 78 1015.3
20260505003403 16 0 0.0 4.8 0.00 0.00 0.00 76 1015.2
20260505003303 16 0 0.0 4.8 0.00 0.00 0.00 77 1015.3
20260505003203 16 296 0.0 4.8 0.00 0.00 0.00 77 1015.3
20260505003103 16 287 0.0 4.8 0.00 0.00 0.00 77 1015.3
20260505003003 16 287 0.0 4.8 0.00 0.00 0.00 77 1015.3
20260505002903 16 287 0.0 4.8 0.00 0.00 0.00 77 1015.3
20260505002803 16 287 0.0 4.8 0.00 0.00 0.00 76 1015.3
20260505002703 16 287 0.0 4.8 0.00 0.00 0.00 76 1015.3
20260505002603 16 287 0.0 4.8 0.00 0.00 0.00 76 1015.3
20260505002503 16 284 0.0 4.8 0.00 0.00 0.00 75 1015.3
20260505002403 16 275 0.0 4.8 0.00 0.00 0.00 75 1015.3
20260505002304 16 265 0.0 4.8 0.00 0.00 0.00 73 1015.3
20260505002203 16 251 0.0 8.0 0.00 0.00 0.00 74 1015.3
20260505002103 17 0 0.0 11.3 0.00 0.00 0.00 73 1015.3
20260505002003 17 0 0.0 11.3 0.00 0.00 0.00 74 1015.3
20260505001903 17 0 0.0 11.3 0.00 0.00 0.00 73 1015.3
20260505001803 17 0 0.0 11.3 0.00 0.00 0.00 73 1015.3
20260505001703 17 0 0.0 11.3 0.00 0.00 0.00 73 1015.4
20260505001603 17 0 0.0 11.3 0.00 0.00 0.00 72 1015.4
20260505001503 17 0 0.0 11.3 0.00 0.00 0.00 71 1015.4
20260505001403 17 0 0.0 11.3 0.00 0.00 0.00 69 1015.4
20260505001303 17 0 0.0 11.3 0.00 0.00 0.00 69 1015.4
20260505001203 17 0 0.0 11.3 0.00 0.00 0.00 70 1015.4
20260505001104 17 0 0.0 0.0 0.00 0.00 0.00 70 1015.4
20260505001003 17 0 0.0 0.0 0.00 0.00 0.00 69 1015.4
20260505000903 17 0 0.0 0.0 0.00 0.00 0.00 69 1015.5
20260505000803 17 0 0.0 0.0 0.00 0.00 0.00 68 1015.4
20260505000703 17 0 0.0 0.0 0.00 0.00 0.00 68 1015.4
20260505000603 17 0 0.0 0.0 0.00 0.00 0.00 68 1015.5
20260505000503 17 0 0.0 0.0 0.00 0.00 0.00 66 1015.5
20260505000405 17 0 0.0 0.0 0.00 0.00 0.00 67 1015.5
20260505000303 17 0 0.0 0.0 0.00 0.00 0.00 67 1015.5
20260505000204 17 0 0.0 0.0 0.00 0.00 0.00 66 1015.5
20260505000103 17 0 0.0 0.0 0.00 0.00 0.00 66 1015.5
20260505000003 17 0 0.0 0.0 0.00 0.00 0.00 67 1015.5
20260504235903 17 0 0.0 0.0 0.00 0.00 0.00 66 1015.5
20260504235803 17 0 0.0 0.0 0.00 0.00 0.00 66 1015.5
20260504235703 17 0 0.0 0.0 0.00 0.00 0.00 66 1015.5
20260504235603 17 0 0.0 0.0 0.00 0.00 0.00 65 1015.5
20260504235503 17 0 0.0 0.0 0.00 0.00 0.00 65 1015.5
20260504235403 17 0 0.0 0.0 0.00 0.00 0.00 65 1015.5
20260504235304 17 0 0.0 0.0 0.00 0.00 0.00 65 1015.6
20260504235203 17 0 0.0 0.0 0.00 0.00 0.00 65 1015.6
20260504235103 17 0 0.0 0.0 0.00 0.00 0.00 65 1015.6
20260504235003 17 0 0.0 0.0 0.00 0.00 0.00 65 1015.6
20260504234903 17 0 0.0 0.0 0.00 0.00 0.00 65 1015.6
20260504234803 17 0 0.0 0.0 0.00 0.00 0.00 66 1015.7
20260504234703 17 0 0.0 0.0 0.00 0.00 0.00 67 1015.7
20260504234603 17 0 0.0 0.0 0.00 0.00 0.00 67 1015.8
20260504234503 17 0 0.0 0.0 0.00 0.00 0.00 67 1015.8
20260504234403 17 0 0.0 0.0 0.00 0.00 0.00 67 1015.8
20260504234303 17 0 0.0 0.0 0.00 0.00 0.00 67 1015.8
20260504234204 17 0 0.0 0.0 0.00 0.00 0.00 66 1015.8
20260504234103 17 0 0.0 0.0 0.00 0.00 0.00 66 1015.7
20260504234003 17 0 0.0 0.0 0.00 0.00 0.00 67 1015.8
20260504233903 17 0 0.0 0.0 0.00 0.00 0.00 68 1015.8
20260504233803 17 0 0.0 0.0 0.00 0.00 0.00 67 1015.8
20260504233703 17 0 0.0 0.0 0.00 0.00 0.00 67 1015.9
20260504233603 17 0 0.0 0.0 0.00 0.00 0.00 67 1015.9
20260504233503 17 0 0.0 0.0 0.00 0.00 0.00 66 1015.9
20260504233403 17 0 0.0 0.0 0.00 0.00 0.00 66 1015.9
20260504233304 17 0 0.0 0.0 0.00 0.00 0.00 66 1016.0
20260504233203 17 0 0.0 0.0 0.00 0.00 0.00 65 1016.0
20260504233103 17 0 0.0 0.0 0.00 0.00 0.00 65 1016.0
20260504233003 17 0 0.0 0.0 0.00 0.00 0.00 66 1016.0
20260504232903 17 0 0.0 0.0 0.00 0.00 0.00 65 1016.1
20260504232803 17 0 0.0 0.0 0.00 0.00 0.00 66 1016.0
20260504232703 17 0 0.0 0.0 0.00 0.00 0.00 66 1016.1
20260504232603 17 0 0.0 0.0 0.00 0.00 0.00 65 1016.1
20260504232503 17 0 0.0 0.0 0.00 0.00 0.00 65 1016.1
20260504232403 17 0 0.0 0.0 0.00 0.00 0.00 66 1016.1
20260504232304 17 0 0.0 0.0 0.00 0.00 0.00 65 1016.1
20260504232203 17 0 0.0 0.0 0.00 0.00 0.00 65 1016.2
20260504232103 17 0 0.0 0.0 0.00 0.00 0.00 65 1016.2
20260504232003 17 0 0.0 0.0 0.00 0.00 0.00 65 1016.2
20260504231903 17 0 0.0 4.8 0.00 0.00 0.00 65 1016.2
20260504231803 17 0 0.0 6.4 0.00 0.00 0.00 65 1016.2
20260504231703 17 348 0.0 6.4 0.00 0.00 0.00 65 1016.1
20260504231603 17 351 0.0 6.4 0.00 0.00 0.00 65 1016.2
20260504231503 17 353 0.0 6.4 0.00 0.00 0.00 65 1016.2
20260504231403 17 355 0.0 6.4 0.00 0.00 0.00 65 1016.3
20260504231003 17 337 1.6 8.0 0.00 0.00 0.00 65 1016.4
20260504230903 17 339 1.6 8.0 0.00 0.00 0.00 66 1016.4
20260504230803 17 341 1.6 8.0 0.00 0.00 0.00 66 1016.4
20260504230703 17 334 1.6 8.0 0.00 0.00 0.00 66 1016.4
20260504230603 17 334 1.6 8.0 0.00 0.00 0.00 66 1016.4
20260504230503 17 349 1.6 14.5 0.00 0.00 0.00 66 1016.4
20260504230403 17 359 1.6 14.5 0.00 0.00 0.00 66 1016.5
20260504230303 17 359 1.6 14.5 0.00 0.00 0.00 66 1016.4
20260504230203 17 359 1.6 14.5 0.00 0.00 0.00 66 1016.4
20260504230003 17 3 0.0 14.5 0.00 0.00 0.00 66 1016.4
20260504225903 17 5 0.0 14.5 0.00 0.00 0.00 66 1016.4
20260504225803 17 5 0.0 14.5 0.00 0.00 0.00 66 1016.5
20260504225703 17 15 0.0 14.5 0.00 0.00 0.00 66 1016.5
20260504225603 17 21 0.0 14.5 0.00 0.00 0.00 66 1016.5
20260504225506 17 0 0.0 9.7 0.00 0.00 0.00 66 1016.5
20260504225403 17 0 0.0 0.0 0.00 0.00 0.00 67 1016.5
20260504225304 17 0 0.0 0.0 0.00 0.00 0.00 67 1016.6
20260504225203 17 0 0.0 0.0 0.00 0.00 0.00 67 1016.6
20260504225103 17 0 0.0 0.0 0.00 0.00 0.00 67 1016.6
20260504225003 17 0 0.0 0.0 0.00 0.00 0.00 67 1016.6
20260504224903 17 0 0.0 0.0 0.00 0.00 0.00 68 1016.6
20260504224803 17 0 0.0 0.0 0.00 0.00 0.00 67 1016.6
20260504224703 17 0 0.0 0.0 0.00 0.00 0.00 67 1016.7
20260504224603 17 0 0.0 0.0 0.00 0.00 0.00 68 1016.6
20260504224503 17 0 0.0 0.0 0.00 0.00 0.00 67 1016.7
20260504224405 17 0 0.0 0.0 0.00 0.00 0.00 67 1016.7
20260504224303 17 0 0.0 0.0 0.00 0.00 0.00 67 1016.7
20260504224203 17 0 0.0 0.0 0.00 0.00 0.00 67 1016.7
20260504224103 17 0 0.0 0.0 0.00 0.00 0.00 68 1016.7
20260504224003 17 0 0.0 0.0 0.00 0.00 0.00 68 1016.7
20260504223903 17 0 0.0 0.0 0.00 0.00 0.00 68 1016.7
20260504223803 17 0 0.0 0.0 0.00 0.00 0.00 68 1016.7
20260504223703 17 0 0.0 0.0 0.00 0.00 0.00 68 1016.8
20260504223603 17 0 0.0 0.0 0.00 0.00 0.00 68 1016.8
20260504223503 17 0 0.0 0.0 0.00 0.00 0.00 68 1016.8
20260504223403 17 0 0.0 0.0 0.00 0.00 0.00 68 1016.8
20260504223304 17 33 0.0 6.4 0.00 0.00 0.00 68 1016.7
20260504223203 17 33 0.0 6.4 0.00 0.00 0.00 68 1016.7
20260504223103 17 33 1.6 6.4 0.00 0.00 0.00 68 1016.7
20260504223003 17 33 1.6 6.4 0.00 0.00 0.00 69 1016.7
20260504222903 17 33 1.6 6.4 0.00 0.00 0.00 69 1016.7
20260504222803 17 32 1.6 6.4 0.00 0.00 0.00 69 1016.7
20260504222703 17 26 1.6 8.0 0.00 0.00 0.00 69 1016.8
20260504222603 17 17 1.6 14.5 0.00 0.00 0.00 69 1016.8
20260504222503 17 11 1.6 14.5 0.00 0.00 0.00 69 1016.8
20260504222403 17 11 1.6 14.5 0.00 0.00 0.00 69 1016.8
20260504222305 17 10 1.6 14.5 0.00 0.00 0.00 69 1016.9
20260504222203 17 8 1.6 14.5 0.00 0.00 0.00 70 1016.9
20260504222103 17 11 1.6 14.5 0.00 0.00 0.00 70 1016.9
20260504222003 17 12 1.6 14.5 0.00 0.00 0.00 70 1017.0
20260504221903 17 12 1.6 14.5 0.00 0.00 0.00 70 1017.0
20260504221803 17 12 1.6 14.5 0.00 0.00 0.00 70 1016.9
20260504221703 16 10 1.6 14.5 0.00 0.00 0.00 71 1017.0
20260504221603 16 8 0.0 11.3 0.00 0.00 0.00 71 1017.0
20260504221504 16 14 0.0 11.3 0.00 0.00 0.00 71 1017.0
20260504221403 16 15 0.0 11.3 0.00 0.00 0.00 72 1017.0
20260504221303 16 15 0.0 11.3 0.00 0.00 0.00 72 1017.1
20260504221203 16 20 0.0 11.3 0.00 0.00 0.00 73 1017.2
20260504221104 16 0 0.0 11.3 0.00 0.00 0.00 73 1017.2
20260504221003 16 0 0.0 1.6 0.00 0.00 0.00 74 1017.2
20260504220903 16 0 0.0 1.6 0.00 0.00 0.00 74 1017.2
20260504220803 16 0 0.0 8.0 0.00 0.00 0.00 74 1017.2
20260504220703 16 0 0.0 8.0 0.00 0.00 0.00 74 1017.3
20260504220603 16 0 0.0 8.0 0.00 0.00 0.00 74 1017.3
20260504220503 15 0 0.0 8.0 0.00 0.00 0.00 74 1017.3
20260504220403 15 0 0.0 8.0 0.00 0.00 0.00 75 1017.2
20260504220303 15 0 0.0 8.0 0.00 0.00 0.00 75 1017.3
20260504220203 16 0 0.0 8.0 0.00 0.00 0.00 75 1017.3
20260504220020 16 0 0.0 8.0 0.00 0.00 0.00 75 1017.3
20260504215903 16 0 0.0 8.0 0.00 0.00 0.00 74 1017.3
20260504215803 16 0 0.0 8.0 0.00 0.00 0.00 75 1017.3
20260504215703 16 0 0.0 0.0 0.00 0.00 0.00 75 1017.3
20260504215603 16 0 0.0 0.0 0.00 0.00 0.00 75 1017.4
20260504215503 16 0 0.0 0.0 0.00 0.00 0.00 75 1017.4
20260504215403 16 0 0.0 0.0 0.00 0.00 0.00 75 1017.4
20260504215304 16 0 0.0 0.0 0.00 0.00 0.00 75 1017.4
20260504215203 16 0 0.0 0.0 0.00 0.00 0.00 75 1017.4
20260504215103 16 0 0.0 0.0 0.00 0.00 0.00 75 1017.5
20260504215003 16 0 0.0 0.0 0.00 0.00 0.00 75 1017.6
20260504214903 16 0 0.0 0.0 0.00 0.00 0.00 75 1017.6
20260504214804 16 0 0.0 0.0 0.00 0.00 0.00 75 1017.6
20260504214703 16 0 0.0 0.0 0.00 0.00 0.00 75 1017.6
20260504214603 16 0 0.0 0.0 0.00 0.00 0.00 75 1017.6
20260504214504 16 0 0.0 0.0 0.00 0.00 0.00 75 1017.7
20260504214403 16 0 0.0 0.0 0.00 0.00 0.00 75 1017.6
20260504214303 16 0 0.0 0.0 0.00 0.00 0.00 75 1017.7
20260504214203 16 0 0.0 0.0 0.00 0.00 0.00 76 1017.7
20260504214103 16 0 0.0 0.0 0.00 0.00 0.00 75 1017.7
20260504214003 16 0 0.0 0.0 0.00 0.00 0.00 75 1017.7
20260504213908 16 0 0.0 0.0 0.00 0.00 0.00 75 1017.7
20260504213803 16 0 0.0 0.0 0.00 0.00 0.00 75 1017.7
20260504213703 16 0 0.0 0.0 0.00 0.00 0.00 75 1017.8
20260504213603 16 0 0.0 0.0 0.00 0.00 0.00 75 1017.8
20260504213503 16 0 0.0 0.0 0.00 0.00 0.00 75 1017.7
20260504213403 16 0 0.0 0.0 0.00 0.00 0.00 75 1017.7
20260504213303 16 0 0.0 0.0 0.00 0.00 0.00 75 1017.7
20260504213203 16 0 0.0 0.0 0.00 0.00 0.00 75 1017.7
20260504213103 16 0 0.0 0.0 0.00 0.00 0.00 75 1017.8
20260504213004 16 0 0.0 0.0 0.00 0.00 0.00 75 1017.7
20260504212903 16 0 0.0 0.0 0.00 0.00 0.00 76 1017.8
20260504212803 16 0 0.0 0.0 0.00 0.00 0.00 76 1017.7
20260504212704 16 0 0.0 0.0 0.00 0.00 0.00 76 1017.7
20260504212603 16 0 0.0 0.0 0.00 0.00 0.00 76 1017.7
20260504212503 16 0 0.0 0.0 0.00 0.00 0.00 76 1017.8
20260504212403 16 0 0.0 0.0 0.00 0.00 0.00 76 1017.8
20260504212304 16 0 0.0 0.0 0.00 0.00 0.00 76 1017.8
20260504212203 16 0 0.0 0.0 0.00 0.00 0.00 76 1017.8
20260504212103 16 0 0.0 0.0 0.00 0.00 0.00 76 1017.9
20260504212003 16 0 0.0 0.0 0.00 0.00 0.00 76 1017.9
20260504211903 16 0 0.0 0.0 0.00 0.00 0.00 76 1017.9
20260504211803 16 0 0.0 0.0 0.00 0.00 0.00 76 1018.0
20260504211703 16 0 0.0 0.0 0.00 0.00 0.00 76 1017.9
20260504211603 16 0 0.0 0.0 0.00 0.00 0.00 76 1017.9
20260504211503 16 0 0.0 0.0 0.00 0.00 0.00 76 1017.9
20260504211403 16 0 0.0 0.0 0.00 0.00 0.00 75 1017.9
20260504211303 16 0 0.0 0.0 0.00 0.00 0.00 75 1017.9
20260504211203 16 0 0.0 0.0 0.00 0.00 0.00 75 1017.9
20260504211103 16 0 0.0 0.0 0.00 0.00 0.00 75 1017.9
20260504211003 16 0 0.0 0.0 0.00 0.00 0.00 75 1017.9
20260504210903 16 0 0.0 0.0 0.00 0.00 0.00 75 1017.9
20260504210803 16 0 0.0 0.0 0.00 0.00 0.00 75 1017.9
20260504210703 16 0 0.0 0.0 0.00 0.00 0.00 75 1017.9
20260504210603 16 0 0.0 0.0 0.00 0.00 0.00 75 1017.9
20260504210503 16 0 0.0 0.0 0.00 0.00 0.00 75 1017.9
20260504210403 16 0 0.0 0.0 0.00 0.00 0.00 75 1017.9
20260504210303 16 0 0.0 0.0 0.00 0.00 0.00 75 1018.0
20260504210203 16 0 0.0 0.0 0.00 0.00 0.00 75 1017.9
20260504210004 16 0 0.0 0.0 0.00 0.00 0.00 75 1018.0
20260504205903 16 0 0.0 0.0 0.00 0.00 0.00 75 1017.9
20260504205803 16 0 0.0 0.0 0.00 0.00 0.00 75 1017.9
20260504205703 16 0 0.0 0.0 0.00 0.00 0.00 75 1017.9
20260504205603 16 0 0.0 0.0 0.00 0.00 0.00 75 1017.9
20260504205503 16 0 0.0 0.0 0.00 0.00 0.00 74 1018.0
20260504205403 16 0 0.0 0.0 0.00 0.00 0.00 74 1017.9
20260504205304 16 0 0.0 0.0 0.00 0.00 0.00 74 1017.9
20260504205203 16 0 0.0 0.0 0.00 0.00 0.00 74 1018.0
20260504205103 16 0 0.0 0.0 0.00 0.00 0.00 74 1017.9
20260504205003 16 0 0.0 0.0 0.00 0.00 0.00 74 1017.9
20260504204904 16 0 0.0 0.0 0.00 0.00 0.00 74 1018.0
20260504204803 16 0 0.0 0.0 0.00 0.00 0.00 74 1018.0
20260504204703 16 0 0.0 0.0 0.00 0.00 0.00 74 1017.9
20260504204603 16 0 0.0 0.0 0.00 0.00 0.00 73 1017.9
20260504204503 16 0 0.0 0.0 0.00 0.00 0.00 73 1017.9
20260504204403 16 0 0.0 0.0 0.00 0.00 0.00 73 1018.0
20260504204303 16 0 0.0 0.0 0.00 0.00 0.00 73 1017.9
20260504204203 16 0 0.0 0.0 0.00 0.00 0.00 73 1017.9
20260504204103 16 0 0.0 0.0 0.00 0.00 0.00 73 1017.9
20260504204003 16 0 0.0 0.0 0.00 0.00 0.00 72 1017.9
20260504203903 16 0 0.0 0.0 0.00 0.00 0.00 73 1017.9
20260504203803 16 0 0.0 0.0 0.00 0.00 0.00 73 1017.9
20260504203704 16 0 0.0 0.0 0.00 0.00 0.00 73 1017.9
20260504203603 16 0 0.0 0.0 0.00 0.00 0.00 73 1017.9
20260504203503 16 0 0.0 0.0 0.00 0.00 0.00 72 1017.9
20260504203403 16 0 0.0 0.0 0.00 0.00 0.00 72 1017.9
20260504203303 16 0 0.0 0.0 0.00 0.00 0.00 73 1017.9
20260504203203 16 0 0.0 0.0 0.00 0.00 0.00 74 1017.9
20260504203103 16 0 0.0 0.0 0.00 0.00 0.00 74 1017.9
20260504203003 16 0 0.0 0.0 0.00 0.00 0.00 74 1017.9
20260504202903 16 0 0.0 0.0 0.00 0.00 0.00 74 1017.9
20260504202803 16 0 0.0 0.0 0.00 0.00 0.00 74 1017.8
20260504202703 16 0 0.0 0.0 0.00 0.00 0.00 74 1017.8
20260504202603 16 0 0.0 0.0 0.00 0.00 0.00 73 1017.9
20260504202503 16 0 0.0 0.0 0.00 0.00 0.00 73 1017.8
20260504202403 16 0 0.0 0.0 0.00 0.00 0.00 74 1017.9
20260504202304 16 0 0.0 0.0 0.00 0.00 0.00 73 1017.8
20260504202203 16 0 0.0 0.0 0.00 0.00 0.00 74 1017.8
20260504202103 16 0 0.0 0.0 0.00 0.00 0.00 73 1017.8
20260504202003 16 0 0.0 0.0 0.00 0.00 0.00 74 1017.8
20260504201903 16 0 0.0 0.0 0.00 0.00 0.00 73 1017.8
20260504201803 16 0 0.0 0.0 0.00 0.00 0.00 74 1017.8
20260504201703 16 0 0.0 0.0 0.00 0.00 0.00 74 1017.8
20260504201603 16 0 0.0 0.0 0.00 0.00 0.00 73 1017.7
20260504201503 16 0 0.0 0.0 0.00 0.00 0.00 74 1017.8
20260504201403 16 0 0.0 0.0 0.00 0.00 0.00 75 1017.8
20260504201303 16 0 0.0 0.0 0.00 0.00 0.00 74 1017.8
20260504201204 16 0 0.0 0.0 0.00 0.00 0.00 74 1017.8
20260504201103 16 0 0.0 0.0 0.00 0.00 0.00 74 1017.8
20260504201003 16 0 0.0 0.0 0.00 0.00 0.00 75 1017.9
20260504200903 16 0 0.0 0.0 0.00 0.00 0.00 75 1017.9
20260504200803 16 0 0.0 0.0 0.00 0.00 0.00 75 1017.9
20260504200703 16 0 0.0 0.0 0.00 0.00 0.00 75 1017.9
20260504200603 16 0 0.0 0.0 0.00 0.00 0.00 74 1017.9
20260504200503 16 0 0.0 0.0 0.00 0.00 0.00 75 1017.9
20260504200403 16 0 0.0 0.0 0.00 0.00 0.00 74 1017.9
20260504200303 16 0 0.0 0.0 0.00 0.00 0.00 74 1017.9
20260504200203 16 0 0.0 0.0 0.00 0.00 0.00 74 1017.9
20260504200104 16 0 0.0 0.0 0.00 0.00 0.00 75 1017.9
20260504200003 16 0 0.0 0.0 0.00 0.00 0.00 75 1017.9
20260504195903 16 0 0.0 0.0 0.00 0.00 0.00 75 1017.8
20260504195803 16 0 0.0 0.0 0.00 0.00 0.00 75 1017.9
20260504195703 16 0 0.0 0.0 0.00 0.00 0.00 75 1017.9
20260504195603 16 0 0.0 0.0 0.00 0.00 0.00 74 1017.9
20260504195503 16 0 0.0 0.0 0.00 0.00 0.00 74 1017.8
20260504195403 16 0 0.0 0.0 0.00 0.00 0.00 74 1017.8
20260504195304 16 0 0.0 0.0 0.00 0.00 0.00 75 1017.9
20260504195203 16 0 0.0 0.0 0.00 0.00 0.00 75 1017.9
20260504195103 16 0 0.0 0.0 0.00 0.00 0.00 74 1017.8
20260504195003 16 0 0.0 0.0 0.00 0.00 0.00 74 1017.8
20260504194903 16 0 0.0 0.0 0.00 0.00 0.00 75 1017.9
20260504194803 16 0 0.0 0.0 0.00 0.00 0.00 74 1017.9
20260504194703 16 0 0.0 0.0 0.00 0.00 0.00 74 1017.9
20260504194603 16 0 0.0 0.0 0.00 0.00 0.00 75 1017.9
20260504194503 16 0 0.0 0.0 0.00 0.00 0.00 75 1017.9
20260504194403 16 0 0.0 0.0 0.00 0.00 0.00 75 1017.8
20260504194303 16 0 0.0 0.0 0.00 0.00 0.00 75 1017.8
20260504194203 16 0 0.0 0.0 0.00 0.00 0.00 75 1017.8
20260504194103 16 0 0.0 0.0 0.00 0.00 0.00 75 1017.8
20260504194003 16 0 0.0 0.0 0.00 0.00 0.00 75 1017.8
20260504193903 16 0 0.0 0.0 0.00 0.00 0.00 75 1017.8
20260504193803 16 0 0.0 0.0 0.00 0.00 0.00 75 1017.9
20260504193703 16 0 0.0 0.0 0.00 0.00 0.00 75 1017.8
20260504193603 16 0 0.0 0.0 0.00 0.00 0.00 75 1017.8
20260504193503 16 0 0.0 0.0 0.00 0.00 0.00 75 1017.7
20260504193403 16 0 0.0 0.0 0.00 0.00 0.00 75 1017.8
20260504193303 16 0 0.0 0.0 0.00 0.00 0.00 75 1017.8
20260504193203 16 0 0.0 0.0 0.00 0.00 0.00 75 1017.8
20260504193103 16 0 0.0 0.0 0.00 0.00 0.00 75 1017.8
20260504193003 16 0 0.0 0.0 0.00 0.00 0.00 74 1017.9
20260504192904 16 0 0.0 0.0 0.00 0.00 0.00 74 1017.9
20260504192803 16 0 0.0 0.0 0.00 0.00 0.00 74 1017.9
20260504192603 16 0 0.0 0.0 0.00 0.00 0.00 75 1017.9
20260504192503 16 0 0.0 0.0 0.00 0.00 0.00 74 1017.9
20260504192403 16 0 0.0 0.0 0.00 0.00 0.00 74 1017.9
20260504192304 16 0 0.0 0.0 0.00 0.00 0.00 74 1017.9
20260504192203 16 0 0.0 0.0 0.00 0.00 0.00 74 1017.9
20260504192103 16 0 0.0 0.0 0.00 0.00 0.00 74 1017.9
20260504192003 16 0 0.0 0.0 0.00 0.00 0.00 74 1017.9
20260504191903 16 0 0.0 0.0 0.00 0.00 0.00 74 1017.9
20260504191803 16 0 0.0 0.0 0.00 0.00 0.00 74 1017.9
20260504191703 16 0 0.0 0.0 0.00 0.00 0.00 73 1017.9
20260504191603 16 0 0.0 0.0 0.00 0.00 0.00 73 1017.9
20260504191504 16 0 0.0 0.0 0.00 0.00 0.00 74 1017.9
20260504191403 16 0 0.0 0.0 0.00 0.00 0.00 74 1017.9
20260504191303 16 0 0.0 0.0 0.00 0.00 0.00 73 1017.9
20260504191203 16 0 0.0 0.0 0.00 0.00 0.00 73 1017.9
20260504191103 16 0 0.0 0.0 0.00 0.00 0.00 73 1017.9
20260504191003 16 0 0.0 0.0 0.00 0.00 0.00 73 1017.9
20260504190903 16 0 0.0 0.0 0.00 0.00 0.00 73 1017.9
20260504190803 16 0 0.0 0.0 0.00 0.00 0.00 73 1017.8
20260504190703 16 0 0.0 0.0 0.00 0.00 0.00 73 1017.9
20260504190603 16 0 0.0 0.0 0.00 0.00 0.00 73 1017.9
20260504190504 16 0 0.0 0.0 0.00 0.00 0.00 73 1017.9
20260504190403 16 0 0.0 0.0 0.00 0.00 0.00 73 1017.8
20260504190303 16 0 0.0 0.0 0.00 0.00 0.00 73 1017.8
20260504190203 16 0 0.0 0.0 0.00 0.00 0.00 72 1017.8
20260504190004 16 0 0.0 0.0 0.00 0.00 0.00 73 1017.8
20260504185903 17 0 0.0 0.0 0.00 0.00 0.00 73 1017.8
20260504185803 17 0 0.0 0.0 0.00 0.00 0.00 72 1017.8
20260504185703 17 0 0.0 0.0 0.00 0.00 0.00 72 1017.8
20260504185603 17 0 0.0 0.0 0.00 0.00 0.00 72 1017.9
20260504185503 17 0 0.0 0.0 0.00 0.00 0.00 72 1017.8
20260504185403 17 0 0.0 1.6 0.00 0.00 0.00 72 1017.8
20260504185304 17 0 0.0 1.6 0.00 0.00 0.00 72 1017.8
20260504185203 17 0 0.0 1.6 0.00 0.00 0.00 72 1017.9
20260504185103 17 0 0.0 4.8 0.00 0.00 0.00 71 1017.8
20260504185003 17 0 0.0 4.8 0.00 0.00 0.00 71 1017.8
20260504184903 17 0 0.0 4.8 0.00 0.00 0.00 71 1017.8
20260504184803 17 0 0.0 4.8 0.00 0.00 0.00 71 1017.8
20260504184703 17 0 0.0 4.8 0.00 0.00 0.00 70 1017.8
20260504184603 17 0 0.0 4.8 0.00 0.00 0.00 71 1017.8
20260504184504 17 0 0.0 4.8 0.00 0.00 0.00 70 1017.7
20260504184403 17 0 0.0 4.8 0.00 0.00 0.00 70 1017.7
20260504184303 17 0 0.0 4.8 0.00 0.00 0.00 70 1017.7
20260504184203 17 0 0.0 4.8 0.00 0.00 0.00 69 1017.7
20260504184103 17 0 0.0 4.8 0.00 0.00 0.00 69 1017.7
20260504184004 17 0 0.0 3.2 0.00 0.00 0.00 69 1017.7
20260504183903 17 0 0.0 3.2 0.00 0.00 0.00 69 1017.7
20260504183803 17 0 0.0 3.2 0.00 0.00 0.00 68 1017.7
20260504183703 17 0 0.0 1.6 0.00 0.00 0.00 68 1017.7
20260504183603 17 0 0.0 1.6 0.00 0.00 0.00 67 1017.7
20260504183503 17 0 0.0 1.6 0.00 0.00 0.00 67 1017.6
20260504183403 17 0 0.0 1.6 0.00 0.00 0.00 67 1017.6
20260504183303 17 0 0.0 1.6 0.00 0.00 0.00 67 1017.7
20260504183203 17 0 0.0 0.0 0.00 0.00 0.00 67 1017.7
20260504183103 17 0 0.0 0.0 0.00 0.00 0.00 67 1017.6
20260504183003 17 0 0.0 0.0 0.00 0.00 0.00 67 1017.6
20260504182903 17 0 0.0 4.8 0.00 0.00 0.00 67 1017.5
20260504182803 17 0 0.0 4.8 0.00 0.00 0.00 69 1017.6
20260504182703 17 0 0.0 4.8 0.00 0.00 0.00 69 1017.6
20260504182603 17 0 0.0 4.8 0.00 0.00 0.00 69 1017.6
20260504182503 17 0 0.0 4.8 0.00 0.00 0.00 69 1017.5
20260504182403 17 0 0.0 4.8 0.00 0.00 0.00 69 1017.5
20260504182304 17 0 0.0 4.8 0.00 0.00 0.00 69 1017.5
20260504182203 17 0 0.0 4.8 0.00 0.00 0.00 68 1017.5
20260504182103 17 0 0.0 4.8 0.00 0.00 0.00 68 1017.4
20260504182003 17 0 0.0 4.8 0.00 0.00 0.00 68 1017.3
20260504181903 17 0 0.0 0.0 0.00 0.00 0.00 68 1017.4
20260504181803 17 0 0.0 0.0 0.00 0.00 0.00 68 1017.4
20260504181703 17 0 0.0 0.0 0.00 0.00 0.00 68 1017.4
20260504181603 17 0 0.0 0.0 0.00 0.00 0.00 68 1017.4
20260504181503 17 0 0.0 0.0 0.00 0.00 0.00 69 1017.4
20260504181403 18 0 0.0 0.0 0.00 0.00 0.00 69 1017.4
20260504181303 18 0 0.0 0.0 0.00 0.00 0.00 69 1017.5
20260504181203 18 0 0.0 0.0 0.00 0.00 0.00 69 1017.5
20260504181103 18 0 0.0 0.0 0.00 0.00 0.00 69 1017.5
20260504181003 18 0 0.0 0.0 0.00 0.00 0.00 68 1017.5
20260504180903 18 0 0.0 0.0 0.00 0.00 0.00 68 1017.5
20260504180804 18 0 1.6 0.0 0.00 0.00 0.00 68 1017.5
20260504180703 18 226 1.6 8.0 0.00 0.00 0.00 68 1017.5
20260504180603 18 223 1.6 8.0 0.00 0.00 0.00 68 1017.5
20260504180504 18 223 1.6 8.0 0.00 0.00 0.00 68 1017.4
20260504180403 18 213 1.6 8.0 0.00 0.00 0.00 66 1017.5
20260504180303 18 205 1.6 8.0 0.00 0.00 0.00 66 1017.5
20260504180204 18 202 1.6 8.0 0.00 0.00 0.00 66 1017.4
20260504180103 18 202 3.2 8.0 0.00 0.00 0.00 67 1017.4
20260504180005 18 201 3.2 8.0 0.00 0.00 0.00 68 1017.4
20260504175903 18 199 3.2 8.0 0.00 0.00 0.00 69 1017.4
20260504175803 18 200 3.2 8.0 0.00 0.00 0.00 69 1017.5
20260504175704 18 200 4.8 6.4 0.00 0.00 0.00 69 1017.5
20260504175603 18 201 4.8 8.0 0.00 0.00 0.00 70 1017.4
20260504175504 18 207 4.8 17.7 0.00 0.00 0.00 70 1017.4
20260504175403 18 206 4.8 17.7 0.00 0.00 0.00 71 1017.4
20260504175304 18 210 6.4 17.7 0.00 0.00 0.00 72 1017.5
20260504175203 18 214 6.4 17.7 0.00 0.00 0.00 72 1017.5
20260504175103 18 212 6.4 17.7 0.00 0.00 0.00 72 1017.5
20260504175003 18 211 6.4 17.7 0.00 0.00 0.00 71 1017.5
20260504174903 18 213 6.4 17.7 0.00 0.00 0.00 71 1017.5
20260504174803 18 215 6.4 17.7 0.00 0.00 0.00 71 1017.4
20260504174703 18 218 6.4 17.7 0.00 0.00 0.00 71 1017.5
20260504174603 18 219 6.4 17.7 0.00 0.00 0.00 71 1017.5
20260504174503 18 219 6.4 17.7 0.00 0.00 0.00 71 1017.5
20260504174403 18 221 6.4 17.7 0.00 0.00 0.00 71 1017.5
20260504174303 18 222 6.4 17.7 0.00 0.00 0.00 71 1017.5
20260504174203 18 222 6.4 16.1 0.00 0.00 0.00 72 1017.5
20260504174103 18 224 8.0 16.1 0.00 0.00 0.00 73 1017.5
20260504174003 18 225 8.0 16.1 0.00 0.00 0.00 73 1017.5
20260504173903 18 225 8.0 16.1 0.00 0.00 0.00 73 1017.6
20260504173803 18 224 8.0 16.1 0.00 0.00 0.00 73 1017.6
20260504173703 18 221 8.0 16.1 0.00 0.00 0.00 73 1017.6
20260504173603 18 221 8.0 16.1 0.00 0.00 0.00 72 1017.7
20260504173503 18 221 8.0 16.1 0.00 0.00 0.00 72 1017.7
20260504173403 18 222 8.0 16.1 0.00 0.00 0.00 72 1017.7
20260504173303 18 222 9.7 16.1 0.00 0.00 0.00 72 1017.7
20260504173203 18 222 9.7 16.1 0.00 0.00 0.00 72 1017.7
20260504173103 18 221 9.7 16.1 0.00 0.00 0.00 73 1017.7
20260504173003 18 223 9.7 16.1 0.00 0.00 0.00 73 1017.8
20260504172903 18 221 9.7 16.1 0.00 0.00 0.00 73 1017.8
20260504172803 18 222 9.7 19.3 0.00 0.00 0.00 73 1017.8
20260504172703 18 223 9.7 19.3 0.00 0.00 0.00 73 1017.8
20260504172603 18 223 9.7 19.3 0.00 0.00 0.00 73 1017.8
20260504172503 18 223 9.7 19.3 0.00 0.00 0.00 73 1017.8
20260504172403 18 222 8.0 19.3 0.00 0.00 0.00 73 1017.7
20260504172304 18 222 8.0 19.3 0.00 0.00 0.00 73 1017.7
20260504172203 18 222 8.0 19.3 0.00 0.00 0.00 73 1017.7
20260504172103 18 221 8.0 19.3 0.00 0.00 0.00 73 1017.7
20260504172003 18 220 8.0 19.3 0.00 0.00 0.00 72 1017.7
20260504171903 18 221 8.0 19.3 0.00 0.00 0.00 73 1017.7
20260504171803 18 221 8.0 19.3 0.00 0.00 0.00 73 1017.7
20260504171703 18 221 8.0 19.3 0.00 0.00 0.00 73 1017.7